[{"header": {"dx": 0.06612293990616946, "dy": 0.0552356325346848, "nx": 98, "ny": 59, "la1": 35.046912555036876, "la2": 31.78801023549047, "lo1": -121.43107172385933, "lo2": -114.95102361305473, "refTime": "2026041806", "parameterCategory": 1, "parameterNumber": 2}, "data": [7.96, 8.24, 8.24, 7.96, 7.61, 7.33, 6.98, 6.35, 5.72, 5.08, 3.83, 3.16, 1.58, 0.63, 0.0, 0.45, -0.89, -1.2, -0.95, 0.0, 0.45, 0.89, 2.17, 2.6, 2.6, 3.07, 3.95, 3.74, 4.22, 4.46, 4.74, 4.74, 4.74, 4.43, 4.46, 4.84, 5.34, 5.64, 4.87, 3.53, 3.13, 3.13, 3.13, 4.98, 6.8, 7.67, 8.3, 7.69, 7.07, 6.44, 4.8, 2.68, 1.88, 2.3, 2.53, 3.07, 3.72, 4.81, 5.46, 6.0, 6.28, 6.55, 5.75, 1.86, 0.65, 1.33, 2.07, 3.84, 4.09, 5.05, 5.75, 5.34, 4.84, 3.49, 1.61, -0.0, -0.0, 0.6, 1.2, 0.63, -0.0, -0.0, -0.63, -1.79, -2.17, -2.15, -1.88, -1.16, -0.59, 0.0, 1.35, 1.47, 1.41, 1.47, 1.35, 1.23, 2.0, 1.8, 8.24, 8.24, 7.96, 7.6, 7.61, 7.33, 6.7, 6.35, 5.72, 5.08, 3.84, 2.15, 1.86, 1.7, 2.4, 1.34, 0.45, -0.63, -0.95, -0.6, 0.0, 0.63, 1.79, 2.68, 3.13, 3.13, 3.13, 2.6, 2.8, 2.15, 2.79, 3.07, 2.79, 2.84, 3.14, 3.6, 4.3, 5.77, 5.36, 4.47, 4.02, 4.02, 5.94, 6.7, 7.68, 8.3, 8.3, 7.02, 6.08, 4.46, 2.68, 2.21, 3.16, 2.79, 2.79, 3.07, 4.11, 5.46, 6.07, 6.4, 7.21, 7.45, 5.09, 2.15, 1.33, 2.3, 3.07, 3.84, 4.8, 5.34, 5.86, 5.34, 4.4, 4.46, 1.88, -0.0, -0.0, 0.6, 1.2, 0.63, -0.0, -0.0, -0.63, -1.79, -2.17, -2.15, -1.88, -1.16, -0.59, 0.0, 1.35, 1.47, 1.41, 1.47, 1.35, 1.23, 2.0, 1.8, 7.6, 7.6, 7.6, 7.61, 7.33, 6.98, 6.7, 6.35, 5.72, 5.1, 4.45, 3.83, 2.5, 2.23, 2.12, 1.34, 0.45, 0.0, -0.57, -0.57, -0.57, 0.0, 0.8, 2.12, 3.13, 3.13, 3.04, 2.6, 1.86, 1.58, 1.24, 1.9, 1.58, 1.26, 2.17, 3.04, 4.02, 5.36, 5.81, 5.77, 5.94, 7.2, 7.69, 8.03, 8.03, 8.03, 7.06, 5.46, 3.83, 2.68, 2.8, 3.49, 3.16, 2.84, 2.07, 2.3, 3.79, 4.81, 6.0, 6.79, 7.89, 6.55, 3.84, 2.4, 2.11, 3.22, 3.72, 4.46, 5.43, 5.43, 6.4, 6.0, 5.34, 4.4, 2.86, 0.6, 0.0, 0.63, 1.2, 0.63, 0.0, 0.0, 0.45, -1.34, -2.24, -2.6, -2.0, -1.61, 0.0, 0.66, 2.29, 2.2, 1.52, 0.72, 0.67, 0.63, 1.23, 1.8, 7.6, 7.6, 7.61, 7.33, 6.97, 6.98, 6.7, 6.35, 5.72, 5.1, 4.75, 4.12, 2.41, 1.9, 1.86, 2.12, 1.2, 0.4, -0.57, -1.49, -1.24, -0.8, 0.0, 0.0, 1.2, 1.79, 2.17, 2.6, 2.12, 1.2, 0.89, 0.45, 0.0, 0.0, 0.95, 2.6, 3.47, 5.26, 6.79, 7.35, 7.67, 8.06, 7.32, 6.44, 6.07, 6.0, 4.93, 3.97, 3.13, 3.74, 4.0, 3.83, 3.22, 2.41, 2.3, 2.98, 3.79, 5.05, 6.0, 7.45, 6.98, 4.8, 3.22, 2.29, 3.0, 3.55, 4.36, 4.74, 5.38, 6.0, 7.07, 7.2, 7.21, 5.44, 3.07, 1.26, 0.45, 0.63, 1.34, 0.89, 0.0, 0.0, 0.0, -0.89, -2.24, -2.24, -1.34, -0.6, 0.51, 1.94, 2.8, 2.29, 1.47, 0.7, 0.0, 0.0, 0.66, 1.8, 7.6, 7.33, 7.61, 6.97, 6.71, 6.98, 6.34, 6.35, 6.0, 5.36, 5.1, 3.85, 2.41, 1.9, 1.9, 1.9, 1.58, 0.8, 0.0, -1.88, -2.21, -1.86, -1.6, -0.89, -0.89, 0.45, 0.89, 1.79, 2.24, 1.79, 0.63, 0.0, 0.0, -0.73, 0.0, 2.16, 2.99, 5.37, 7.02, 6.95, 6.68, 5.46, 4.15, 3.95, 4.85, 5.31, 4.92, 4.47, 5.16, 4.93, 4.0, 3.45, 2.15, 2.3, 2.98, 4.11, 5.05, 5.34, 6.79, 7.89, 6.07, 2.3, 1.41, 2.35, 3.2, 4.56, 4.36, 4.43, 4.74, 6.08, 7.28, 8.55, 7.84, 6.54, 3.6, 2.15, 0.45, 0.45, 1.34, 1.34, 0.0, 0.0, 0.0, -0.89, -1.7, -1.86, 0.0, 1.2, 2.0, 3.11, 2.98, 2.0, 1.27, 0.0, -1.16, 0.0, 1.33, 1.84, 7.33, 7.61, 6.97, 6.97, 6.98, 6.34, 6.34, 6.35, 5.72, 5.45, 4.83, 4.1, 2.41, 1.49, 1.9, 1.49, 1.2, 1.49, 0.0, -1.33, -2.2, -2.07, -2.21, -1.6, -0.95, 0.0, 0.0, 0.71, 1.49, 1.58, 0.63, 0.0, 0.0, 0.0, 0.69, 1.44, 2.4, 5.49, 6.24, 4.56, 2.73, 2.21, 3.2, 5.31, 6.07, 6.21, 5.36, 5.31, 5.59, 4.66, 3.32, 2.84, 3.07, 3.07, 3.07, 4.84, 5.34, 5.59, 6.98, 7.45, 3.84, 1.55, 1.41, 2.2, 2.8, 4.65, 5.43, 5.46, 3.84, 5.05, 7.21, 7.71, 7.98, 7.06, 4.24, 2.68, 1.86, 1.6, 1.7, 1.34, 0.0, 0.0, 0.0, -0.57, -1.24, -0.61, 0.0, 1.94, 2.8, 2.11, 2.0, 2.0, 0.54, -2.0, -2.15, 0.0, 1.16, 2.23, 6.96, 6.97, 6.97, 6.71, 6.98, 6.34, 6.08, 6.35, 5.72, 5.72, 5.1, 4.08, 2.41, 1.9, 3.48, 1.49, 1.4, 1.6, 1.33, 0.0, -1.27, -2.29, -2.29, -1.55, -0.7, 0.0, 0.0, 0.0, 0.0, 0.0, -0.95, -0.89, 0.0, 1.24, 2.04, 1.4, 1.58, 3.99, 5.06, 3.16, 0.85, 0.76, 3.22, 5.59, 6.0, 4.02, 4.24, 5.34, 5.86, 6.61, 4.8, 2.84, 3.79, 3.79, 4.22, 4.66, 4.85, 4.92, 5.36, 4.24, 1.4, -0.0, 0.7, 1.49, 2.3, 4.11, 5.46, 5.34, 3.97, 4.87, 6.26, 6.71, 6.71, 6.71, 4.02, 3.13, 2.4, 1.58, 1.26, 1.79, 1.2, 0.0, 0.0, -0.59, -0.59, 0.0, 0.72, 1.45, 2.2, 2.11, 1.98, 0.0, -2.5, -3.53, -1.9, 0.0, 1.84, 2.51, 6.96, 6.97, 6.97, 6.98, 6.34, 6.34, 6.08, 5.7, 5.98, 5.32, 4.69, 4.05, 2.53, 1.88, 3.79, 1.9, 1.88, 2.07, 2.3, 2.15, 1.9, 1.24, 0.0, 0.0, -0.74, 0.0, 0.0, -1.07, -1.98, -2.68, -2.6, -1.58, 0.0, 1.74, 3.55, 2.9, 1.4, 2.35, 3.91, 2.95, 0.71, 0.0, 0.85, 1.49, 1.2, 0.95, 2.23, 4.4, 6.28, 6.79, 3.07, 3.84, 4.46, 4.84, 4.8, 4.24, 3.97, 3.13, 3.58, 1.86, 0.71, -0.0, -0.0, 1.6, 2.53, 3.2, 5.59, 5.77, 4.47, 4.41, 5.77, 6.21, 6.55, 5.86, 3.82, 2.17, 1.2, 0.6, 1.2, 2.17, 3.39, 1.13, 0.0, 0.0, 0.0, 0.64, 1.36, 1.36, 1.36, 1.45, 0.0, -2.84, -4.73, -3.07, -0.65, 0.61, 1.8, 2.51, 6.96, 6.97, 6.71, 6.98, 6.34, 6.34, 6.08, 5.7, 5.7, 5.06, 4.66, 4.0, 2.26, 2.35, 2.4, 1.49, 2.3, 2.3, 2.15, 1.9, 2.54, 3.13, 3.95, 1.88, 0.66, 0.0, 0.0, -1.66, -4.47, -3.91, -2.16, -1.1, 0.0, 2.06, 3.09, 2.29, 1.98, 1.96, 2.12, 0.76, -0.6, -1.34, -1.34, -1.34, -1.34, -0.0, 0.63, 2.54, 4.4, 5.43, 5.84, 4.43, 4.81, 5.43, 5.05, 4.8, 4.24, 3.51, 1.7, 1.26, 0.71, -0.0, 0.76, 1.74, 2.8, 4.02, 5.36, 6.71, 4.66, 4.8, 4.4, 5.44, 6.0, 5.05, 3.07, 1.26, 0.0, 0.0, 0.95, 2.17, 3.07, 2.79, 1.13, 0.0, 0.0, 0.67, 1.3, 0.63, 0.0, -0.59, -2.84, -5.02, -4.8, -3.16, -0.59, 1.13, 2.48, 2.48, 6.97, 6.97, 6.71, 6.98, 6.34, 6.34, 6.34, 6.08, 5.7, 5.7, 5.29, 5.04, 4.42, 2.93, 1.67, 1.58, 2.44, 1.67, 1.07, 1.1, 1.05, 2.2, 3.48, 3.79, 1.66, 0.79, 0.0, -0.76, -4.22, -3.17, 0.0, 0.0, 0.0, 0.0, 0.0, 1.03, 3.22, 2.07, 0.0, -0.71, -1.7, -1.79, -1.2, -1.34, -1.34, -0.89, -0.45, 0.45, 1.26, 3.48, 4.74, 5.06, 5.43, 5.09, 5.05, 5.34, 5.34, 4.66, 2.6, 1.58, 1.49, 1.47, 2.12, 2.68, 3.2, 3.13, 4.47, 6.22, 4.24, 3.22, 3.49, 4.73, 4.73, 3.14, 2.15, 1.7, 0.0, -0.54, 0.0, 1.24, 2.0, 3.07, 3.32, 2.21, 1.61, 1.16, 1.16, 1.2, 0.0, -2.68, -3.98, -4.27, -4.11, -2.98, -0.63, 1.23, 2.2, 2.73, 6.97, 6.97, 6.71, 6.98, 6.61, 6.34, 6.34, 6.34, 5.95, 5.69, 5.69, 5.69, 5.45, 4.63, 2.44, 2.35, 2.49, 1.74, 1.11, 1.16, 1.58, 1.63, 2.39, 3.15, 3.35, 1.05, 0.79, 0.0, -1.99, -2.26, 0.0, 0.0, 0.0, -0.57, -0.66, 0.0, 1.99, 0.8, -1.26, -1.58, -1.2, -0.89, -0.0, 1.34, -1.34, -0.89, -0.89, -0.0, -0.0, 0.85, 2.3, 3.79, 4.84, 4.93, 5.16, 5.31, 5.77, 5.36, 3.13, 1.9, 2.2, 2.26, 3.0, 2.98, 2.3, 1.88, 2.91, 3.13, 3.07, 2.21, 2.15, 2.51, 2.21, 1.9, 1.7, 2.24, 1.7, 0.0, 0.0, 0.0, 0.53, 2.15, 3.07, 3.97, 3.53, 3.53, 3.58, 3.13, 2.17, 0.6, -1.7, -2.84, -3.72, -2.88, -0.61, 0.67, 2.11, 2.44, 6.97, 6.97, 6.97, 6.71, 6.98, 6.61, 6.34, 6.34, 5.69, 5.69, 5.69, 5.69, 5.69, 5.46, 5.1, 4.05, 3.37, 2.28, 2.3, 1.72, 1.67, 2.25, 2.28, 1.94, 1.98, 1.05, 1.05, 1.08, 0.0, -0.8, 0.0, 0.0, -1.26, -1.49, -1.2, -1.2, -1.24, -1.79, -1.79, -1.2, 0.45, -0.0, -0.0, -0.0, 1.34, -1.34, -1.2, -0.0, -0.0, 0.8, 1.26, 2.0, 3.04, 3.58, 4.02, 4.87, 5.31, 5.16, 2.91, 1.49, 1.63, 2.4, 3.2, 0.82, -0.0, 0.59, 1.61, 2.68, 2.6, 1.9, 2.23, 2.17, 2.24, 1.79, 1.79, 2.24, 2.68, 1.86, 0.0, 0.0, 0.0, 0.53, 1.9, 3.58, 4.02, 4.02, 4.92, 4.47, 4.02, 3.58, 2.6, 0.0, -2.23, -2.73, -0.67, 0.0, 1.41, 2.11, 6.7, 6.97, 6.97, 6.97, 6.71, 6.71, 6.33, 6.33, 6.08, 5.69, 5.69, 5.69, 5.69, 5.7, 5.72, 5.69, 4.45, 3.84, 3.35, 2.8, 2.83, 2.71, 2.73, 2.0, 1.95, 2.68, 3.2, 3.2, 2.63, 1.7, 0.89, -0.0, -1.26, -1.86, -1.86, -2.12, -2.24, -1.79, -1.34, -0.89, 0.45, -0.0, -0.0, 0.0, 0.45, -0.89, -0.89, 0.45, 0.45, 1.34, 1.2, 1.26, 1.86, 2.8, 2.6, 3.16, 3.6, 4.0, 2.4, -0.0, -0.0, 1.63, 1.63, -0.0, -0.74, -0.0, 1.26, 2.24, 2.4, 2.6, 2.63, 2.8, 2.8, 2.4, 2.6, 2.68, 2.68, 2.6, 1.86, 0.54, -0.61, -0.59, 0.59, 1.33, 3.13, 4.02, 4.47, 4.43, 3.98, 3.98, 3.97, 2.91, 1.24, -0.61, -0.63, 0.0, 0.67, 0.61, 6.96, 6.7, 6.97, 6.97, 6.97, 6.97, 6.71, 6.33, 6.33, 5.69, 5.69, 5.69, 5.69, 5.95, 6.35, 5.72, 5.37, 5.01, 4.47, 4.73, 4.46, 4.1, 3.84, 3.48, 3.7, 4.34, 4.89, 5.36, 5.81, 4.47, 1.79, -0.0, -2.4, -1.7, -1.6, -1.6, -1.2, -0.63, -0.89, -0.45, 0.0, 0.0, 0.0, 1.34, 0.0, 0.0, -0.63, 0.0, 0.0, 0.8, 0.71, 0.85, 0.71, 0.95, 0.95, 1.24, 0.85, 1.74, 1.9, -0.0, -0.79, -0.0, -0.0, -1.1, -1.55, -0.54, 0.0, 0.6, 2.53, 2.24, 2.8, 2.68, 3.07, 3.13, 2.68, 2.6, 2.6, 2.6, 2.6, 2.12, 0.57, 0.0, 0.59, 0.66, 1.61, 3.07, 4.24, 4.3, 3.98, 3.98, 4.43, 3.98, 3.32, 1.9, 0.61, 0.0, 0.0, 0.0, 6.96, 6.96, 6.96, 6.96, 6.7, 6.97, 6.97, 6.33, 6.33, 5.69, 5.69, 5.69, 5.69, 5.95, 6.08, 6.35, 6.32, 5.69, 5.65, 5.65, 5.98, 5.93, 5.49, 5.6, 5.4, 6.04, 6.61, 7.13, 7.15, 6.26, 3.13, 0.0, -1.58, -2.4, -1.9, -1.4, -0.0, -0.0, 0.89, 0.0, 0.0, 0.89, 1.34, 1.34, 1.34, 0.89, -0.0, -0.0, 1.34, 0.0, 0.71, 0.85, 0.0, -0.0, -0.0, 0.45, 0.8, 0.76, 1.26, -0.0, -0.71, -0.8, -0.71, -0.8, -0.8, -0.95, -0.89, -0.6, 0.0, 0.45, 1.49, 3.07, 4.41, 3.74, 2.68, 2.4, 2.23, 1.86, 2.12, 2.24, 2.68, 2.68, 2.63, 2.4, 1.33, 1.23, 2.79, 3.6, 3.39, 3.53, 4.43, 4.73, 4.24, 3.32, 2.4, 0.0, 0.0, 0.0, 6.96, 6.96, 6.96, 6.96, 6.96, 6.96, 6.97, 6.58, 6.33, 6.08, 5.69, 5.69, 5.69, 5.95, 6.08, 6.35, 6.06, 6.32, 5.95, 6.23, 6.23, 6.7, 6.95, 7.01, 6.79, 6.97, 7.51, 7.58, 7.6, 7.15, 4.92, 1.79, -0.0, -1.58, -1.4, -0.71, -0.0, -0.0, -0.0, 0.45, 0.0, 0.0, 1.34, 1.34, 1.79, -0.0, -0.0, -0.0, -0.0, 1.34, 1.79, 0.89, 0.95, 0.8, 0.6, 0.63, 1.6, 1.6, 1.34, 0.8, -0.0, -0.0, -0.0, 1.34, 0.0, 0.0, 0.0, -1.6, -1.79, -0.45, 1.34, 3.51, 5.16, 3.49, 2.51, 1.88, 1.24, 1.7, 1.79, 2.12, 2.4, 2.91, 3.32, 3.53, 3.13, 2.4, 1.23, 2.0, 2.53, 3.07, 4.0, 4.52, 3.07, 2.91, 1.86, 0.0, 0.0, 0.0, 6.96, 6.96, 6.96, 6.96, 6.96, 6.96, 6.7, 6.58, 6.33, 6.33, 5.69, 5.69, 6.08, 5.95, 6.08, 6.35, 6.35, 6.34, 6.28, 6.23, 6.44, 7.07, 7.08, 7.51, 7.87, 7.97, 8.42, 8.42, 8.47, 8.03, 7.15, 4.47, 1.79, -0.0, -0.0, -0.0, -0.0, 0.6, 1.34, 1.79, 0.89, 0.0, 0.89, 0.45, 1.79, -0.0, -0.0, -0.0, -0.0, 1.4, 1.4, 1.4, 1.6, 2.84, 2.53, 3.39, 4.02, 3.82, 2.23, 1.27, 1.6, 1.4, 2.8, 3.13, 3.13, 1.34, 1.34, 0.0, -1.26, 0.0, 0.71, 1.86, 2.12, 1.24, 0.59, 0.59, 0.54, 0.45, 0.6, 0.6, 1.26, 2.0, 3.07, 3.53, 3.53, 3.58, 1.88, 1.27, 1.49, 3.16, 4.73, 4.0, 2.79, 2.79, 2.86, 1.2, 0.0, 0.0, 6.94, 6.94, 7.22, 7.22, 6.96, 6.96, 6.7, 6.31, 6.33, 6.33, 6.08, 6.08, 6.08, 5.7, 5.98, 6.08, 6.69, 6.67, 6.32, 6.23, 6.7, 6.95, 6.95, 7.01, 7.52, 8.42, 8.79, 8.87, 8.87, 8.42, 7.97, 6.68, 4.02, 2.4, 0.53, -0.0, -0.0, 0.89, 1.34, 1.34, 0.45, 0.0, 0.0, 0.45, 1.26, -0.0, -0.0, -0.0, 1.4, 1.6, 1.6, 1.27, 2.23, 2.23, 2.23, 2.84, 3.72, 3.48, 2.73, 2.48, 2.84, 3.39, 4.02, 4.02, 4.02, 1.6, 1.79, 1.58, 0.0, 0.0, 0.0, 0.0, 0.89, 0.89, 0.0, -1.13, -1.88, -1.2, -0.45, 0.0, 0.45, 1.7, 2.6, 3.53, 3.58, 3.13, 3.07, 0.76, 0.73, 2.2, 3.79, 3.72, 3.35, 3.16, 3.14, 1.88, 0.76, 0.76, 6.94, 6.94, 6.94, 6.94, 7.22, 6.96, 6.7, 6.31, 6.33, 6.33, 6.08, 5.69, 5.95, 5.7, 5.7, 6.14, 6.08, 6.35, 6.32, 7.07, 7.48, 7.61, 6.7, 5.43, 5.75, 7.4, 7.51, 7.71, 7.21, 7.74, 7.87, 6.51, 4.44, 2.91, 1.61, 0.65, 0.6, 1.34, 1.34, 1.34, 0.89, 0.45, 0.45, 1.79, 1.2, 1.6, 1.6, 1.4, 1.4, 1.6, 1.13, 1.27, 1.41, 1.08, 1.19, 2.4, 3.48, 3.48, 3.48, 3.72, 3.82, 3.58, 3.58, 1.79, 1.2, -0.0, -0.0, 1.6, 3.16, 2.21, 2.24, 3.58, 7.12, 6.71, 3.07, 0.0, -1.84, -2.51, -1.88, -0.54, 1.16, 1.84, 2.23, 2.53, 2.79, 3.45, 3.6, 3.6, 1.41, 1.3, 1.94, 3.48, 4.09, 3.78, 3.16, 2.51, 1.84, 1.84, 6.94, 6.94, 6.94, 6.94, 6.94, 6.96, 6.31, 6.31, 6.33, 6.33, 6.08, 5.95, 5.95, 5.7, 5.7, 5.72, 6.0, 5.72, 4.83, 5.37, 7.07, 8.0, 6.87, 5.69, 5.69, 6.06, 6.08, 7.07, 7.23, 7.31, 7.01, 5.81, 3.98, 2.68, 1.84, 1.16, 0.57, 1.26, 1.7, 1.79, 1.79, 1.79, 2.24, 2.4, 2.21, 2.53, 2.53, 1.6, 1.6, 1.6, 1.13, 1.41, 1.19, 1.19, 0.65, 1.4, 3.49, 1.9, 1.7, 4.02, 3.58, 3.13, 2.8, 1.79, -0.0, -0.57, -0.6, 0.89, 3.13, 4.85, 5.86, 8.63, 11.98, 13.39, 10.62, 5.09, 1.33, -1.41, -1.41, 0.0, 0.66, 1.8, 2.51, 2.53, 2.53, 3.14, 3.2, 3.58, 3.07, 1.61, 0.63, 2.88, 4.36, 3.72, 2.66, 2.73, 2.0, 2.0, 6.94, 6.94, 6.94, 6.94, 6.7, 6.96, 6.31, 6.31, 6.33, 6.33, 6.08, 5.95, 5.7, 5.7, 5.95, 5.98, 5.72, 5.46, 5.09, 5.38, 6.53, 6.95, 6.95, 6.64, 6.64, 6.32, 6.23, 6.23, 6.23, 6.41, 5.75, 4.8, 3.58, 2.68, 1.6, 1.13, 0.65, 1.24, 1.86, 1.86, 2.17, 2.6, 2.6, 2.91, 2.21, 2.84, 2.53, 1.4, 1.4, 1.6, -0.0, -0.0, -0.0, -0.0, 1.19, 1.2, 2.3, 2.51, 3.35, 2.68, 2.4, 1.9, 1.34, -1.58, -0.8, -0.8, -0.8, -0.0, 1.6, 3.22, 5.37, 8.63, 10.93, 12.07, 11.23, 8.3, 2.11, -1.41, -3.0, -0.7, 0.0, 1.33, 2.21, 2.91, 3.07, 3.09, 3.13, 2.91, 3.97, 4.02, 2.84, 2.04, 3.79, 3.32, 2.54, 2.54, 2.6, 2.6, 6.94, 6.94, 6.94, 6.94, 6.7, 6.56, 6.31, 6.31, 6.33, 6.33, 6.08, 5.95, 5.7, 5.7, 5.7, 6.08, 5.72, 5.72, 6.08, 6.34, 6.64, 6.34, 6.34, 6.64, 7.51, 7.44, 7.07, 6.41, 6.03, 5.75, 5.08, 4.11, 3.58, 2.79, 2.23, 1.13, 0.61, 0.65, 1.24, 1.86, 1.86, 2.0, 2.4, 2.15, 2.21, 2.23, 2.53, 1.4, 1.4, -0.0, -0.0, -0.0, -0.0, -0.0, -0.0, 1.19, 1.41, 2.29, 2.4, 1.34, 0.0, -0.63, -0.89, -0.8, -1.58, -1.0, -0.85, -0.57, -0.0, 0.71, 1.74, 4.29, 3.45, 3.07, 3.79, 4.87, 5.04, 1.27, -1.27, -2.8, -1.35, 0.0, 0.54, 1.86, 2.63, 3.13, 3.13, 3.13, 3.82, 4.92, 5.44, 4.07, 3.32, 2.6, 1.3, 1.19, 1.94, 1.94, 6.94, 6.94, 6.94, 6.94, 6.7, 6.56, 6.31, 6.31, 6.33, 6.33, 6.08, 5.95, 5.7, 5.7, 5.7, 6.08, 6.35, 6.35, 6.69, 7.3, 6.95, 6.32, 5.71, 6.32, 6.92, 7.44, 7.61, 6.95, 6.28, 6.0, 5.31, 4.34, 4.02, 3.2, 2.23, 1.16, 1.16, 0.65, 1.24, 1.24, 1.86, 1.86, 1.58, 1.9, 1.88, 1.61, 1.4, 1.2, -0.0, -0.0, -0.0, -0.0, -0.0, -0.0, -0.0, -0.0, -0.0, 0.73, 1.8, -0.0, -1.34, -1.79, -1.6, -1.0, -1.49, -0.76, -0.85, -0.0, -0.0, 0.45, 0.0, -0.89, -1.24, 0.89, 0.0, 1.44, 4.12, 4.29, 1.16, -1.8, -3.47, -1.94, -0.59, 0.0, 1.4, 2.5, 2.68, 3.14, 3.48, 5.06, 6.25, 5.72, 3.43, 1.8, 0.51, 0.63, 1.73, 1.73, 6.94, 6.94, 6.94, 6.94, 6.7, 6.56, 6.31, 6.31, 6.33, 6.33, 6.08, 5.95, 5.7, 5.7, 5.7, 6.08, 6.08, 6.35, 6.69, 7.27, 7.23, 7.21, 6.28, 6.28, 6.87, 7.44, 7.72, 7.23, 7.2, 6.51, 5.4, 4.77, 4.02, 3.39, 2.68, 1.88, 1.2, 0.65, 0.54, 1.24, 1.24, 1.58, 1.58, 1.61, 1.2, 1.2, 1.4, 1.4, 0.99, -0.0, -0.0, -0.0, -0.0, -0.0, -0.0, -0.0, -0.0, -0.0, -0.0, -0.0, -0.89, -1.79, -1.2, -0.71, -1.4, -1.49, -0.0, -0.0, -0.0, 0.45, 0.71, -2.24, -1.26, -0.6, -1.79, 0.0, 2.21, 3.17, 3.49, 0.0, -2.66, -3.91, -1.84, 0.0, 0.0, 0.63, 1.94, 2.8, 3.47, 3.64, 5.09, 3.72, 2.86, 1.49, 0.6, 1.13, 1.94, 1.94, 6.94, 6.94, 6.94, 6.94, 6.7, 6.56, 6.31, 6.31, 6.33, 6.33, 6.08, 5.95, 5.7, 5.7, 5.7, 5.7, 6.08, 6.35, 6.97, 6.97, 7.55, 7.51, 7.44, 6.87, 6.87, 6.87, 7.09, 7.35, 6.7, 6.28, 5.81, 5.24, 4.47, 3.53, 2.91, 1.9, 1.0, 0.54, 0.54, 1.24, 1.24, 1.24, 1.58, 1.49, 1.2, 1.0, 1.24, 1.24, 1.2, 0.65, 0.53, -0.0, -0.0, -0.0, -0.0, -0.0, -0.0, -0.8, -0.0, -0.0, 0.89, 0.45, 0.45, -0.71, -1.6, -0.87, -0.0, -0.0, -0.0, 1.26, 1.49, 0.71, 0.45, -0.45, -0.45, 0.0, 0.71, 0.7, 3.45, 1.88, 0.0, -2.72, -2.6, -0.65, 0.0, 0.0, 1.4, 2.26, 2.11, 1.8, 1.88, 3.2, 3.53, 3.13, 2.68, 2.68, 2.23, 2.23, 6.94, 6.94, 6.94, 6.94, 6.7, 6.56, 6.31, 6.31, 6.33, 6.33, 6.08, 5.95, 5.7, 5.7, 5.98, 5.98, 6.35, 6.35, 6.97, 6.97, 7.55, 7.55, 7.51, 7.44, 6.87, 6.87, 6.87, 7.15, 7.07, 6.41, 5.6, 5.24, 4.47, 3.58, 3.13, 2.17, 1.24, 1.0, 1.0, 1.24, 1.24, 1.24, 1.24, 1.24, 1.24, 0.71, 1.24, 1.24, 1.24, 0.54, -0.0, -0.0, -0.0, -0.0, -0.0, -0.0, -0.0, -1.4, -1.58, 0.0, 1.34, 2.24, 1.7, -0.0, -0.0, -0.65, -0.65, -0.0, 0.45, 0.6, 2.53, 2.84, 1.9, 1.86, 1.79, 1.79, 1.79, 1.16, 1.41, 2.0, 2.07, 0.0, -2.06, -1.88, -1.36, 0.0, 0.72, 1.23, 0.59, 0.0, 0.0, 2.91, 3.98, 4.43, 4.43, 3.82, 3.6, 3.6, 6.94, 6.94, 6.94, 6.94, 6.7, 6.56, 6.31, 6.31, 6.33, 6.33, 6.08, 5.95, 5.7, 5.7, 5.98, 5.98, 6.35, 6.35, 6.69, 6.97, 7.27, 7.55, 7.55, 7.51, 7.44, 6.87, 6.87, 6.79, 6.23, 6.41, 5.6, 4.9, 4.6, 4.3, 3.53, 2.68, 1.86, 1.24, 1.24, 1.26, 1.26, 1.26, 0.57, 0.71, 0.57, 0.57, 0.8, 0.8, 0.8, -0.0, -0.0, -0.0, -0.0, -0.0, -0.0, -0.0, -0.0, -1.6, -1.2, -0.45, 0.89, 2.24, 3.47, 2.23, 1.27, -0.0, -0.0, -0.0, 0.0, 0.0, 1.6, 3.07, 3.79, 2.86, 2.68, 1.7, 1.34, 1.2, 1.55, 2.29, 2.98, 1.41, -0.55, -2.72, -2.72, -0.64, 0.0, 0.0, -0.54, -1.16, -0.57, 0.57, 3.6, 4.52, 4.52, 4.11, 4.11, 4.11, 6.94, 6.94, 6.94, 6.94, 6.7, 6.56, 6.31, 6.31, 5.89, 6.33, 5.69, 5.95, 5.7, 5.7, 5.98, 5.72, 5.98, 6.35, 6.35, 6.97, 7.27, 7.55, 7.55, 7.55, 7.51, 7.21, 6.87, 6.23, 5.93, 5.29, 5.08, 4.4, 4.19, 4.11, 3.39, 2.68, 2.12, 1.58, 1.26, 1.26, 1.26, 0.8, 0.8, 0.8, 0.8, 0.6, 0.95, 0.6, -0.0, -0.0, -0.0, -0.0, -0.0, -0.0, -0.61, -0.0, -0.0, -1.9, -1.2, -1.34, 0.0, 1.34, 2.6, 2.8, 1.58, 1.6, -0.0, 0.45, 0.0, 0.0, 0.71, 3.22, 3.79, 2.41, 0.57, 0.0, 0.0, 0.0, 1.16, 2.11, 2.73, 2.84, 0.51, -1.94, -2.82, -1.44, -1.32, -1.84, -1.4, -0.59, -0.63, 0.0, 2.48, 3.78, 4.37, 4.27, 4.27, 4.27, 6.94, 6.94, 6.94, 6.94, 6.29, 6.29, 6.31, 6.31, 5.89, 5.67, 5.69, 5.95, 5.7, 5.7, 5.98, 5.72, 5.72, 6.35, 6.35, 6.97, 6.97, 7.27, 7.55, 7.55, 7.51, 6.92, 6.87, 6.23, 5.59, 4.94, 4.55, 4.27, 4.11, 3.6, 2.91, 2.24, 1.7, 1.6, 1.2, 1.2, 0.95, 0.6, 0.6, -0.0, 0.63, 0.95, 0.95, 0.89, 0.45, 0.45, -0.0, -0.0, -0.0, -0.0, -0.0, -0.0, -0.0, -1.58, -0.89, -0.89, 0.0, 1.34, 2.24, 2.12, 1.49, 0.6, 0.6, 0.45, 0.0, 0.0, 0.57, 3.22, 5.75, 4.81, 1.41, -0.65, -2.5, -0.54, 1.2, 2.79, 2.51, 3.79, 2.53, 0.51, -0.63, -2.12, -4.14, -3.64, -1.35, -0.7, -0.67, 0.0, 0.61, 2.86, 3.48, 3.78, 4.37, 4.37, 6.94, 6.94, 6.94, 6.94, 6.29, 6.29, 6.31, 6.31, 5.89, 5.67, 5.67, 5.69, 5.95, 5.7, 5.7, 5.72, 5.72, 6.35, 6.35, 6.97, 6.97, 7.27, 6.97, 6.95, 6.95, 6.92, 6.87, 6.23, 5.59, 4.94, 4.55, 4.27, 3.6, 3.07, 2.4, 1.79, 1.34, 1.34, 1.34, 0.89, 0.63, 0.63, 0.63, 0.63, 0.89, 0.45, 0.45, 0.89, 0.45, 0.45, -0.0, -0.0, -0.0, -0.0, -0.0, -0.0, -0.0, -0.0, -0.45, -0.45, 0.0, 0.89, 1.79, 1.34, 0.89, -0.0, -0.0, 0.45, 0.45, 0.0, 0.0, 2.79, 5.86, 7.89, 7.32, 3.79, 0.0, -1.88, 0.0, 1.84, 3.48, 4.74, 4.07, 2.21, 0.0, -2.0, -3.26, -3.51, -2.06, -0.67, -0.69, -0.69, 0.0, 1.94, 2.44, 3.15, 3.79, 3.79, 6.94, 6.94, 6.94, 6.94, 6.29, 6.29, 6.56, 5.89, 5.89, 5.89, 5.67, 5.92, 5.95, 5.7, 5.7, 5.98, 5.98, 6.35, 6.35, 6.69, 6.97, 6.97, 6.67, 6.95, 6.64, 6.64, 6.32, 5.98, 5.59, 4.94, 4.65, 4.0, 3.35, 2.68, 1.86, 1.79, 1.34, 1.34, 0.89, 0.89, 0.89, 0.89, 0.89, 0.89, 0.45, 0.0, 0.45, 0.89, 0.45, -0.0, -0.0, -0.0, -0.0, -0.0, -0.0, -0.0, -0.0, -0.0, -0.0, 0.0, 0.0, 0.89, 1.34, 0.89, 0.0, 0.0, 0.45, -0.63, 0.0, 0.71, 1.33, 0.76, 2.53, 6.98, 10.49, 10.68, 7.03, 1.9, 0.0, 0.61, 2.66, 4.07, 3.83, 2.23, 0.0, -1.61, -2.61, -1.94, -1.35, -1.35, -1.23, -1.23, -0.61, 0.0, 1.88, 2.66, 3.12, 3.12, 6.53, 6.53, 6.94, 6.94, 6.29, 6.29, 6.29, 5.89, 5.89, 5.89, 5.67, 5.67, 5.92, 5.7, 5.7, 5.7, 5.98, 6.35, 6.35, 6.35, 6.69, 6.97, 6.67, 6.95, 6.34, 6.32, 5.71, 5.08, 4.81, 4.71, 4.37, 4.07, 3.09, 2.21, 1.86, 1.34, 1.34, 0.89, 0.89, 0.45, 0.45, 0.45, 0.45, 0.89, 0.89, 0.89, 0.0, 0.45, 0.45, -0.0, -0.0, -0.0, -0.0, -0.0, -0.0, -0.0, -0.0, -0.0, 0.6, -0.0, 0.45, 0.45, 0.89, 0.32, 0.0, 0.0, 0.0, 0.0, 0.0, 0.85, 0.99, 0.0, 0.0, 3.2, 9.26, 11.18, 9.2, 4.4, 1.7, 1.9, 2.53, 2.53, 2.84, 2.86, 1.16, 0.0, -0.53, -1.24, -1.2, -0.63, 0.0, -0.6, -0.51, 0.0, 1.3, 1.88, 2.66, 2.66, 6.53, 6.53, 6.94, 6.94, 6.29, 6.29, 6.29, 5.64, 5.89, 5.89, 5.89, 5.67, 5.92, 5.69, 5.7, 5.7, 5.98, 6.08, 6.35, 6.35, 6.35, 6.35, 6.35, 6.34, 6.04, 5.71, 5.69, 5.08, 4.45, 3.79, 3.79, 3.79, 3.16, 2.21, 1.86, 1.2, 1.2, 0.95, 0.63, 0.45, 0.45, 0.45, 0.45, 0.89, 0.45, 0.45, 0.89, 0.45, 0.45, -0.0, -0.0, -0.0, -0.0, -0.0, -0.0, -0.0, -0.0, -0.0, -0.0, 0.8, -0.0, 0.45, 1.79, 0.0, 0.45, 0.0, 0.0, 0.89, 1.26, 0.8, 0.89, 0.4, 0.0, 2.15, 6.94, 8.63, 4.8, 1.49, 2.24, 3.58, 4.02, 3.97, 4.24, 4.52, 5.21, 3.73, 2.23, 1.2, -0.0, 0.57, 0.99, 1.26, 1.34, 0.54, 0.59, 1.35, 1.94, 1.94, 6.53, 6.53, 6.53, 6.53, 6.53, 6.29, 6.29, 5.64, 5.89, 5.89, 5.89, 5.67, 5.67, 5.92, 5.95, 5.7, 5.7, 6.08, 6.08, 6.35, 6.35, 6.35, 6.35, 6.34, 5.72, 5.71, 5.38, 4.75, 4.75, 3.83, 3.49, 3.2, 2.86, 2.21, 1.86, 1.26, 0.95, 0.6, 0.63, 0.0, 0.0, 0.0, 0.0, 0.0, 0.0, 0.0, 0.0, 0.45, 0.45, -0.0, -0.0, -0.0, -0.0, -0.0, -0.0, -0.0, -0.0, -0.0, -0.0, 0.8, -0.0, -0.0, 1.58, 1.26, 0.45, 0.0, 0.45, 0.45, 0.89, 0.89, 0.63, 0.95, 1.34, 3.9, 6.7, 6.79, 3.58, 2.6, 4.0, 6.36, 7.57, 6.71, 6.58, 7.33, 7.73, 7.81, 6.51, 3.13, 0.99, 0.57, 1.26, 2.12, 2.17, 2.24, 2.4, 0.63, 1.35, 1.35, 6.53, 6.53, 6.53, 6.53, 6.53, 6.29, 6.29, 5.86, 5.64, 5.89, 5.89, 5.89, 5.67, 5.92, 5.92, 5.95, 5.95, 6.08, 6.08, 6.35, 6.35, 6.08, 5.72, 5.72, 5.72, 5.1, 5.08, 4.47, 4.12, 3.49, 3.49, 2.86, 2.58, 2.21, 1.9, 1.26, 0.8, 0.8, 0.6, 0.0, 0.0, 0.0, 0.0, 0.0, 0.0, 0.0, 0.0, 0.45, 0.45, -0.0, -0.0, -0.0, -0.0, -0.0, -0.0, -0.0, -0.0, -0.0, -0.0, -0.0, -0.0, -0.0, -0.0, 1.58, 1.58, 1.79, 0.45, 0.0, 0.0, 0.0, 0.0, 0.89, 3.82, 7.03, 8.63, 8.19, 7.89, 8.0, 8.24, 8.63, 8.49, 8.38, 7.76, 8.06, 8.76, 8.48, 6.51, 2.68, 0.6, 0.6, 1.7, 2.24, 2.24, 3.13, 3.53, 3.39, 1.27, 1.27, 6.53, 6.53, 6.53, 6.53, 6.53, 6.29, 6.29, 5.86, 5.64, 5.89, 5.89, 5.89, 5.67, 5.67, 5.92, 5.69, 5.95, 6.34, 6.08, 5.7, 5.98, 5.72, 5.72, 5.72, 5.1, 5.1, 4.75, 4.1, 3.84, 3.49, 3.12, 2.86, 2.51, 2.21, 1.9, 1.24, 0.71, 0.57, 0.8, 0.0, 0.0, 0.0, 0.0, 0.0, 0.0, 0.0, 0.0, -0.63, -0.63, -0.0, -0.0, -0.0, -0.0, -0.0, -0.0, -0.0, -0.0, -0.0, -0.0, -0.0, -0.0, 0.57, -0.0, -0.0, 0.89, 2.68, 0.89, 0.45, 0.0, 0.0, 0.45, 0.45, 2.68, 7.15, 9.81, 8.46, 8.01, 8.91, 9.58, 9.36, 8.38, 6.36, 6.13, 6.54, 6.64, 5.67, 3.58, 2.17, 1.2, 1.34, 1.79, 2.24, 2.17, 2.6, 3.51, 3.53, 2.79, 2.79, 6.53, 6.53, 6.53, 6.53, 6.53, 6.29, 6.29, 5.86, 5.86, 5.64, 5.89, 5.89, 5.89, 5.67, 5.67, 5.92, 5.95, 6.34, 5.7, 5.7, 5.98, 5.72, 5.34, 5.09, 5.1, 4.73, 4.47, 3.85, 3.47, 3.22, 2.84, 2.6, 2.51, 1.88, 1.61, 1.2, 0.54, 0.54, 0.57, 0.0, 0.0, 0.0, 0.0, 0.0, 0.0, 0.0, 0.0, -0.89, -0.95, -0.0, -0.0, -0.0, -0.0, -0.0, -0.0, -0.0, -0.0, -0.0, -0.0, -0.0, -0.0, -0.0, -0.0, 0.45, 0.89, 2.24, 0.89, 0.45, 0.45, 0.0, 0.0, 0.0, 0.63, 5.7, 8.46, 8.49, 6.55, 7.71, 9.11, 8.97, 6.64, 4.52, 3.6, 3.6, 3.97, 4.02, 3.97, 3.09, 1.79, 1.34, 1.2, 1.7, 2.4, 2.4, 3.2, 3.6, 4.0, 3.82, 6.53, 6.53, 6.53, 6.53, 6.53, 6.53, 6.29, 5.86, 5.86, 5.64, 5.89, 5.89, 5.89, 5.67, 5.67, 5.92, 5.92, 5.95, 5.7, 5.7, 5.72, 5.32, 5.08, 5.09, 4.71, 4.47, 4.1, 3.85, 3.47, 3.22, 2.84, 2.6, 2.51, 1.61, 1.16, 0.53, 0.53, 0.54, 0.0, 0.0, 0.0, 0.0, 0.0, 0.0, 0.0, 0.0, 0.0, -0.45, -0.95, -0.63, -0.0, -0.95, -0.6, -0.0, -0.0, -0.0, -0.0, -0.0, -0.0, -0.0, -0.0, -0.0, -0.0, 0.45, 0.45, 1.79, 1.79, 0.45, 0.45, -0.0, -0.0, 0.0, 0.45, 3.13, 7.56, 7.6, 4.73, 6.7, 9.14, 9.05, 6.13, 3.82, 3.39, 3.53, 3.58, 4.47, 4.43, 4.02, 3.58, 2.24, 1.26, 1.26, 2.15, 2.4, 3.2, 4.0, 4.09, 4.0, 6.53, 6.53, 6.53, 6.53, 6.53, 6.53, 6.29, 5.86, 5.86, 5.64, 5.64, 5.89, 5.89, 5.89, 5.67, 5.92, 5.92, 5.69, 5.7, 5.7, 5.32, 5.08, 5.08, 4.69, 4.71, 4.08, 3.84, 3.45, 3.47, 2.82, 2.84, 2.44, 2.23, 1.84, 1.16, 0.61, 0.61, 0.53, 0.0, 0.0, 0.0, 0.0, 0.0, 0.0, 0.0, 0.65, 0.0, 0.45, -0.63, -0.63, -0.63, -0.95, -0.6, -0.0, -0.0, -0.0, -0.0, -0.0, -0.0, -0.0, -0.0, -0.0, -0.0, -0.0, 1.79, 2.24, 0.89, 0.45, -0.0, -0.0, -0.0, 0.0, 0.0, 1.58, 4.02, 4.93, 4.02, 4.4, 7.07, 7.46, 5.44, 4.02, 5.36, 5.36, 4.87, 5.36, 6.26, 5.36, 4.47, 3.58, 2.63, 2.15, 2.21, 2.86, 3.83, 3.83, 4.66, 4.09, 6.53, 6.53, 6.53, 6.53, 6.53, 6.53, 6.29, 5.86, 5.86, 5.86, 5.64, 5.89, 5.89, 5.89, 5.89, 5.67, 5.92, 5.69, 5.7, 5.7, 5.32, 5.08, 4.44, 4.45, 4.03, 3.83, 3.42, 3.45, 2.8, 2.82, 2.84, 2.44, 1.8, 1.13, 1.13, 0.59, 0.59, 0.0, 0.0, 0.0, 0.0, 0.0, 0.0, 0.54, 0.0, 0.0, 0.0, 0.45, -0.89, -0.63, -0.95, -0.95, -0.95, -0.0, -0.0, -0.0, -0.0, -0.0, -0.0, -0.0, -0.0, -0.0, -0.0, -0.0, -0.0, 1.2, 0.63, 1.58, -0.0, -0.0, -0.0, 0.0, 0.0, 0.0, 1.34, 2.23, 2.4, 2.68, 3.32, 3.74, 3.13, 3.97, 6.11, 7.92, 7.57, 6.71, 5.81, 5.36, 5.36, 4.92, 3.97, 3.07, 3.14, 4.12, 4.84, 4.46, 4.84, 4.84, 6.53, 6.53, 6.53, 6.53, 6.53, 6.53, 6.29, 5.86, 5.86, 5.86, 5.64, 5.64, 5.89, 5.89, 5.89, 5.67, 5.92, 5.92, 5.69, 5.7, 5.32, 4.66, 4.44, 4.03, 3.81, 3.6, 3.42, 3.21, 3.0, 3.04, 2.61, 2.2, 1.76, 1.11, 0.57, 0.57, 0.0, 0.0, 0.0, 0.0, 0.0, 0.0, 0.0, 0.54, 0.71, 0.0, 0.45, 0.45, -0.89, -1.34, -1.34, -0.63, -0.63, -0.0, -0.95, -0.0, -0.0, -0.0, -0.0, -0.0, -0.0, -0.0, -0.0, -0.0, -0.0, 1.2, 1.2, -0.0, -0.0, -0.0, -0.0, 0.45, 0.0, 0.0, 0.0, 0.89, 1.7, 2.6, 3.07, 3.32, 4.93, 6.25, 8.76, 10.37, 9.74, 8.01, 5.36, 5.36, 5.32, 5.64, 5.2, 4.52, 3.49, 4.46, 4.81, 5.09, 5.09, 5.09, 6.53, 6.53, 6.53, 6.53, 6.53, 6.53, 6.53, 6.29, 5.86, 5.86, 5.86, 5.64, 5.89, 5.89, 5.89, 5.89, 5.67, 5.92, 5.69, 5.29, 5.32, 4.66, 4.0, 4.03, 3.37, 3.6, 3.4, 2.96, 2.77, 2.8, 2.36, 2.4, 1.73, 1.19, 0.55, 0.55, 0.0, 0.0, 0.0, 0.0, 0.0, 0.0, 0.0, 0.0, 0.0, 0.0, 0.45, 0.45, -0.89, -1.34, -0.89, -0.89, 0.89, -0.0, -0.6, -0.6, -0.0, -0.0, -0.0, -0.0, -0.0, -0.0, -0.0, -0.0, -0.0, -0.0, -0.0, -0.0, -0.0, -0.0, -0.0, 0.0, 0.0, 0.0, 0.65, 0.6, 2.24, 3.97, 6.79, 7.32, 8.65, 10.45, 11.46, 10.88, 10.05, 8.02, 5.81, 4.88, 5.16, 5.86, 5.44, 5.05, 4.12, 4.43, 4.81, 5.09, 5.09, 5.09, 6.29, 6.29, 6.53, 6.53, 6.53, 6.53, 6.53, 6.29, 5.86, 5.86, 5.86, 5.64, 5.89, 5.89, 5.89, 5.89, 5.67, 5.92, 5.69, 5.06, 4.66, 4.44, 4.0, 4.03, 3.37, 3.6, 2.92, 2.96, 2.77, 2.8, 2.16, 1.84, 1.7, 1.16, 0.54, 0.61, 0.0, 0.0, 0.0, 0.0, 0.0, 0.0, 0.0, 0.0, 0.0, 0.0, 0.0, -0.89, -0.89, -1.34, -0.89, -0.45, 0.45, -0.0, -0.6, -0.8, -0.0, -0.0, -0.0, -0.0, -0.0, -0.0, -0.0, -0.0, -0.0, -0.0, -0.0, -0.0, -0.0, -0.0, -0.0, 0.45, 0.6, 0.71, 1.26, 1.34, 1.79, 4.92, 7.28, 8.67, 10.18, 12.07, 12.9, 11.72, 9.46, 8.38, 8.01, 5.81, 5.64, 4.4, 6.8, 3.16, 3.79, 3.72, 3.79, 4.43, 4.43, 4.43, 6.29, 6.29, 6.29, 6.53, 6.53, 6.53, 6.53, 6.29, 5.86, 5.86, 5.86, 5.64, 5.64, 5.89, 5.89, 5.89, 5.67, 5.92, 5.69, 5.29, 4.66, 4.0, 3.8, 3.56, 3.37, 3.37, 2.92, 2.75, 2.96, 2.29, 2.32, 1.67, 1.67, 1.14, 1.05, 0.54, 0.0, 0.0, 0.0, 0.0, 0.0, 0.0, 0.0, 0.0, 0.0, 0.0, 0.0, -0.95, -0.95, -0.95, -0.89, -0.45, 0.45, -0.0, -0.6, -0.8, -0.8, -0.0, -0.0, -0.0, -0.0, -0.0, -0.0, -0.0, -0.0, -0.0, -0.0, -0.0, -0.0, -0.0, -0.0, 0.45, 0.89, 1.2, 1.34, 2.0, 3.13, 4.47, 6.07, 6.44, 7.9, 11.28, 12.94, 11.8, 10.18, 8.71, 8.49, 8.46, 6.36, 6.4, 5.01, 2.15, 2.15, 2.3, 2.98, 3.64, 3.64, 3.64, 6.29, 6.29, 6.29, 6.53, 6.53, 6.53, 6.53, 6.29, 5.86, 5.86, 5.86, 5.64, 5.64, 5.89, 5.89, 5.89, 5.67, 5.92, 5.69, 5.29, 4.66, 4.0, 3.8, 3.56, 3.37, 2.89, 2.92, 2.75, 2.75, 2.29, 2.29, 1.65, 1.8, 1.14, 1.14, 0.59, 0.0, 0.0, 0.0, 0.0, 0.0, 0.0, 0.0, 0.0, 0.0, -0.57, -0.6, -0.6, -0.95, -0.95, -0.89, -0.45, 0.45, -0.0, -0.8, -0.57, -0.8, -0.0, -0.0, -0.0, -0.65, -0.0, -0.53, -0.61, -0.61, -0.0, -0.0, -0.0, -0.0, -0.0, -0.0, -0.0, 0.45, 0.45, 0.89, 1.79, 2.68, 4.38, 3.83, 3.48, 5.06, 9.27, 12.39, 11.85, 10.38, 8.84, 7.6, 7.48, 6.07, 1.9, 1.9, 1.2, 0.61, 1.33, 2.2, 3.64, 3.64, 3.64, 6.29, 6.29, 6.29, 6.53, 6.53, 6.53, 6.53, 6.29, 5.86, 5.86, 5.86, 5.64, 5.64, 5.89, 5.89, 5.89, 5.67, 5.92, 5.26, 5.29, 4.63, 4.0, 3.8, 3.56, 3.37, 2.89, 2.73, 2.92, 2.75, 2.26, 2.29, 1.76, 1.65, 1.65, 1.14, 0.53, 0.0, 0.0, 0.0, 0.0, 0.0, 0.0, 0.0, 0.0, 0.0, -0.57, -0.57, -0.6, -0.95, -0.95, -0.89, -0.89, 0.45, -0.63, -0.8, -0.8, -0.8, -0.57, -0.0, -0.54, -0.65, -0.0, -0.61, -0.61, -0.61, -0.0, -0.0, -0.0, -0.0, -0.0, -0.0, -0.0, 0.0, 0.0, 0.0, 0.45, 1.79, 2.97, 2.53, 2.15, 3.16, 6.08, 8.94, 8.24, 7.85, 7.12, 5.78, 4.73, 3.53, 2.4, 1.24, 0.54, 0.61, 0.59, 1.27, 2.07, 2.07, 2.07, 6.29, 6.29, 6.29, 6.53, 6.53, 6.53, 6.53, 6.29, 5.86, 5.86, 5.86, 5.86, 5.64, 5.89, 5.89, 5.89, 5.67, 5.92, 5.26, 5.29, 4.63, 4.0, 3.35, 3.56, 3.37, 2.89, 2.73, 2.92, 2.75, 2.26, 2.26, 1.76, 1.76, 1.65, 1.12, 0.58, 0.54, 0.0, 0.0, 0.0, 0.0, 0.0, 0.0, 0.0, 0.0, -0.71, -0.57, -0.8, -0.6, -0.95, -0.63, -0.89, -0.45, -0.89, -1.26, -1.26, -0.8, -0.8, -0.57, -0.71, -0.65, -0.53, -0.61, -0.61, -1.33, -0.8, -0.8, -0.0, -0.0, -0.0, -0.0, 0.0, 0.45, 0.45, 0.45, 0.0, 0.45, 1.26, 1.58, 1.49, 1.49, 3.07, 3.22, 3.16, 4.11, 4.92, 3.39, 2.91, 3.07, 3.53, 2.91, 1.88, 1.16, 0.61, 0.0, 0.0, 0.0, 0.0, 6.29, 6.29, 6.29, 6.53, 6.53, 6.53, 6.29, 6.29, 5.86, 5.86, 5.86, 5.86, 5.64, 5.89, 5.89, 5.89, 5.67, 5.92, 5.26, 5.04, 4.63, 4.0, 3.52, 3.35, 3.56, 2.89, 2.89, 2.73, 2.92, 2.26, 2.26, 1.76, 1.76, 1.76, 1.12, 0.58, 0.53, 0.59, 0.59, 0.0, 0.0, 0.0, 0.0, 0.0, 0.0, 0.0, -0.57, -0.8, -0.6, -0.95, -0.63, -0.89, -0.45, -0.95, -1.6, -1.26, -1.26, -1.26, -0.8, -0.57, -0.71, -0.65, -0.61, -0.61, -1.16, -1.58, -1.26, -0.71, -0.0, -0.0, -0.0, -0.0, 0.45, 0.0, 0.0, 0.0, 0.0, 0.45, 0.63, 1.0, 0.57, 0.65, 0.65, 1.86, 3.13, 4.43, 3.07, 1.86, 1.58, 3.32, 4.3, 3.45, 1.2, 0.0, -0.63, 0.0, 0.0, 0.0, 6.29, 5.86, 5.86, 6.29, 6.53, 6.53, 6.29, 5.86, 5.86, 5.86, 5.86, 5.86, 5.64, 5.89, 5.89, 5.89, 5.67, 5.92, 5.26, 5.04, 4.63, 4.42, 3.52, 3.35, 3.56, 2.89, 2.89, 2.73, 2.73, 2.4, 2.26, 1.73, 1.63, 1.76, 1.12, 0.53, 0.58, 0.58, 0.53, 0.59, 0.0, 0.0, 0.0, 0.0, 0.0, 0.0, -0.57, -0.8, -0.6, -0.95, -0.63, -0.89, -0.89, -0.63, -0.95, -1.26, -1.86, -1.49, -1.26, -0.8, -0.57, -0.54, -0.65, -0.61, -1.16, -1.88, -1.26, -1.58, -0.71, -0.0, -0.0, -0.6, -0.0, -0.0, -0.45, 0.0, 0.0, 0.45, 0.0, -0.0, -0.0, -0.0, -0.0, 1.34, 4.43, 4.87, 3.53, 1.49, 0.54, 1.4, 3.14, 3.6, 0.6, -1.34, -0.63, 0.0, 0.0, 0.0, 5.86, 5.86, 5.86, 5.86, 5.86, 5.86, 5.86, 5.86, 5.86, 5.86, 5.86, 5.86, 5.64, 5.89, 5.89, 5.89, 5.67, 5.67, 5.26, 5.04, 4.63, 4.42, 3.52, 3.35, 3.35, 2.89, 2.89, 2.89, 2.73, 2.23, 2.26, 1.73, 1.73, 1.63, 1.2, 0.57, 0.53, 0.58, 0.58, 0.53, 0.54, 0.0, 0.0, 0.0, 0.0, 0.0, -0.71, -0.57, -0.6, -0.63, -0.89, -0.45, -0.45, -0.0, -0.0, -0.8, -1.86, -1.86, -1.86, -1.26, -0.8, -0.57, -0.71, -0.65, -1.2, -1.61, -1.86, -2.12, -1.26, -0.8, -0.8, -0.4, -0.0, -0.0, -0.0, 0.45, 0.45, 0.0, 0.45, -0.45, -0.0, -0.0, -0.0, 3.58, 6.22, 6.22, 3.53, 1.7, 0.0, 0.65, 2.53, 2.5, 0.45, -1.2, -0.57, 0.0, 0.0, 0.0, 5.86, 5.86, 5.86, 5.86, 5.86, 5.86, 5.86, 5.86, 5.86, 5.86, 5.86, 5.86, 5.64, 5.89, 5.89, 5.89, 5.67, 5.23, 5.26, 5.04, 4.63, 4.63, 3.52, 3.52, 3.35, 2.86, 2.89, 2.89, 2.89, 2.23, 2.4, 2.26, 1.73, 1.63, 1.1, 0.57, 0.57, 0.57, 0.53, 0.58, 0.59, 0.0, 0.0, 0.0, 0.0, 0.0, 0.0, -0.57, -0.6, 0.0, 0.45, 0.45, 0.45, -0.0, -0.0, -0.0, -0.8, -1.86, -2.23, -1.86, -0.8, -0.57, -0.57, -0.71, -1.24, -1.9, -2.4, -2.63, -1.79, -1.2, -0.63, 0.45, 0.0, 0.63, -0.0, -0.0, 0.0, -0.63, -0.63, -0.89, -0.89, -0.63, 0.63, 3.13, 4.92, 5.81, 4.02, 2.17, 0.42, 0.54, 1.2, 1.58, 0.0, -1.26, -0.54, 0.0, 0.0, 0.0, 5.86, 5.86, 5.86, 5.86, 5.86, 5.86, 5.86, 5.86, 5.86, 5.86, 5.86, 5.86, 5.64, 5.64, 5.89, 5.89, 5.67, 5.23, 5.26, 4.6, 4.6, 4.63, 3.97, 3.52, 3.35, 2.86, 2.86, 2.89, 2.89, 2.73, 2.23, 2.4, 2.26, 1.73, 1.1, 0.56, 0.61, 0.57, 1.12, 0.58, 0.58, 0.59, 0.0, 0.0, 0.0, 0.0, 0.0, 0.0, 0.0, 0.0, 0.45, 0.45, -0.0, -0.0, -0.0, -0.0, -0.0, -1.24, -1.9, -1.86, -1.26, -0.8, -0.8, -0.57, -1.24, -1.24, -1.58, -2.17, -1.79, -1.79, -0.89, 0.45, 0.0, 0.0, -0.0, 0.0, 0.45, -1.2, -1.6, -1.34, -0.89, -1.7, -1.86, -0.0, 1.86, 3.07, 3.13, 1.79, 0.0, 0.0, 1.16, 1.2, 0.0, -0.57, -0.54, -0.6, -0.6, -0.6, 5.86, 5.86, 5.86, 5.86, 5.86, 5.86, 5.86, 5.86, 5.86, 5.86, 5.86, 5.86, 5.64, 5.64, 5.89, 5.89, 5.67, 5.23, 5.26, 4.6, 4.6, 4.63, 3.97, 3.52, 3.52, 3.35, 2.86, 2.86, 2.89, 2.89, 2.23, 2.23, 2.4, 1.73, 1.18, 1.1, 1.1, 1.1, 1.12, 1.12, 1.14, 0.59, 0.54, 0.0, 0.0, 0.0, 0.0, 0.0, 0.0, 0.0, 0.45, 0.0, -0.0, -0.0, -0.0, -0.0, -0.0, -0.0, -1.24, -1.86, -1.26, -0.6, -0.0, -0.8, -0.99, -0.99, -0.8, -0.95, -2.12, -1.79, -1.34, -0.89, 0.45, 0.0, -0.0, 0.45, 0.0, -0.63, -1.2, -1.34, -1.34, -2.91, -3.32, -1.58, -0.0, 1.34, 1.79, 0.89, 0.0, 0.0, 0.66, 0.0, 0.0, 0.0, -0.57, -0.89, -0.89, -0.89, 5.86, 5.86, 5.86, 5.86, 5.86, 5.86, 5.86, 5.86, 5.86, 5.86, 5.86, 5.86, 5.64, 5.64, 5.89, 5.89, 5.67, 5.23, 5.26, 5.04, 4.6, 4.4, 4.16, 3.32, 3.52, 3.35, 3.35, 2.86, 2.89, 2.89, 2.73, 2.73, 2.92, 2.4, 1.73, 1.18, 1.1, 1.1, 1.2, 1.12, 1.23, 1.14, 1.16, 0.55, 0.57, 0.0, 0.0, 0.0, 0.0, 0.0, 0.45, 0.45, -0.0, -0.0, -0.0, -0.0, -0.0, -0.0, -0.57, -1.26, -1.26, -0.6, -0.6, -0.8, -0.57, -0.57, -0.8, -0.6, -1.6, -1.34, -1.34, -0.89, -0.45, -0.45, -0.0, -0.0, 0.0, 0.0, 0.0, -0.89, -1.34, -2.6, -3.53, -2.17, -0.0, 0.89, 0.89, -0.0, 0.45, 0.0, 0.0, 0.0, 0.0, 0.0, 0.0, -0.0, -0.0, -0.0, 5.86, 5.86, 5.86, 5.86, 5.86, 5.86, 5.86, 5.86, 5.86, 5.86, 5.86, 5.86, 5.64, 5.64, 5.89, 5.89, 5.67, 5.23, 5.26, 5.26, 4.6, 4.4, 4.16, 3.32, 3.52, 3.52, 3.35, 3.35, 3.56, 2.89, 2.89, 2.73, 2.92, 2.92, 2.26, 1.73, 1.73, 1.63, 1.76, 1.76, 1.65, 1.67, 1.16, 1.19, 0.57, 0.59, 0.65, 0.57, 0.6, 0.95, 0.63, 0.45, 0.89, -0.0, -0.0, -0.0, 0.6, -0.0, -0.0, -0.8, -1.26, -0.6, -0.6, -0.8, -0.8, -0.57, -0.8, -0.0, -0.95, -0.89, -0.89, -1.34, -0.89, -0.89, -0.45, 0.0, 0.45, 0.89, 0.0, 0.0, 0.0, -1.34, -2.68, -2.68, -0.45, 0.63, 1.2, 0.45, 0.45, -0.57, -0.61, -0.66, 0.0, 0.0, 0.45, 0.54, 0.54, 0.54, 5.86, 5.86, 5.86, 5.86, 5.86, 5.86, 5.86, 5.86, 5.86, 5.86, 5.86, 5.86, 5.64, 5.64, 5.89, 5.89, 5.67, 5.23, 5.26, 5.26, 4.6, 4.4, 4.16, 3.97, 3.52, 3.52, 3.35, 3.35, 3.56, 3.37, 3.37, 2.73, 2.92, 2.92, 2.75, 1.73, 1.73, 1.63, 1.76, 1.76, 1.65, 1.8, 1.84, 1.7, 1.08, 1.13, 1.16, 1.24, 1.26, 0.6, 0.95, 0.89, 0.89, -0.0, -0.0, -0.0, 0.95, 0.6, -0.0, -0.6, -0.8, -0.6, -0.6, -0.8, -0.8, -0.8, -0.8, -0.0, -0.0, -0.0, -0.89, -1.34, -1.2, -0.89, -0.32, 0.45, 0.0, 0.45, 1.79, 0.45, 0.0, -0.89, -2.24, -2.24, -0.8, 0.63, 1.26, 1.7, 0.63, 0.0, -0.53, -0.51, 0.0, 1.26, 1.9, 1.88, 1.88, 1.88, 5.86, 5.86, 5.86, 5.86, 5.86, 5.86, 5.86, 5.86, 5.86, 5.86, 5.86, 5.86, 5.64, 5.89, 5.89, 5.67, 5.67, 5.23, 5.26, 5.26, 4.6, 4.6, 4.63, 3.97, 4.0, 3.52, 3.35, 3.35, 3.56, 3.37, 3.37, 3.6, 3.4, 3.4, 3.2, 2.75, 2.26, 2.26, 2.29, 2.29, 2.14, 2.32, 2.36, 2.18, 2.2, 1.58, 1.84, 1.61, 1.58, 1.86, 1.6, 1.34, 1.34, 0.89, 0.89, 0.89, 0.63, 0.95, 0.63, -0.0, -0.6, -0.6, -0.6, -0.0, -0.57, -0.8, -0.6, -0.0, -0.0, -0.0, 0.45, -0.45, -0.63, 1.79, 0.0, 0.89, 0.45, 0.89, 1.79, 1.34, 0.45, -0.89, -1.34, -1.79, -0.63, 0.4, 1.49, 2.17, 2.68, 2.17, 1.26, 0.99, 2.17, 2.91, 3.49, 3.48, 3.48, 3.48, 5.86, 5.86, 5.86, 5.86, 5.86, 5.86, 5.86, 5.86, 5.86, 5.86, 5.86, 5.86, 5.64, 5.89, 5.89, 5.67, 5.67, 5.23, 5.26, 5.26, 4.6, 4.6, 4.63, 3.97, 4.0, 4.0, 3.8, 4.03, 4.03, 4.03, 3.37, 3.6, 3.4, 3.4, 3.42, 3.42, 2.96, 2.96, 2.96, 2.77, 3.0, 2.8, 3.04, 2.82, 2.84, 2.86, 2.51, 2.53, 2.5, 2.4, 1.7, 1.79, 1.79, 1.34, 0.89, 0.89, 0.89, 0.89, 0.63, -0.0, -0.0, -0.0, -0.0, -0.0, -0.0, -0.0, -0.0, -0.0, -0.0, -0.0, 0.45, 0.45, 0.45, 0.89, 0.45, 0.45, 0.89, 1.79, 1.79, 1.34, 0.89, 0.0, 0.0, -0.63, 0.0, 0.63, 1.7, 2.68, 3.58, 3.97, 3.97, 3.53, 3.82, 4.93, 4.37, 3.79, 3.79, 3.79, 5.86, 5.86, 5.86, 5.86, 5.86, 5.86, 5.86, 5.86, 5.86, 5.86, 5.86, 5.86, 5.64, 5.89, 5.89, 5.67, 5.67, 5.23, 5.26, 5.26, 4.6, 4.6, 4.63, 3.97, 4.0, 4.0, 3.8, 4.03, 4.03, 4.03, 3.37, 3.6, 3.4, 3.4, 3.42, 3.42, 2.96, 2.96, 2.96, 2.77, 3.0, 2.8, 3.04, 2.82, 2.84, 2.86, 2.51, 2.53, 2.5, 2.4, 1.7, 1.79, 1.79, 1.34, 0.89, 0.89, 0.89, 0.89, 0.63, -0.0, -0.0, -0.0, -0.0, -0.0, -0.0, -0.0, -0.0, -0.0, -0.0, -0.0, 0.45, 0.45, 0.45, 0.89, 0.45, 0.45, 1.34, 1.79, 1.79, 1.34, 0.89, 0.0, 0.6, 0.6, 1.6, 2.17, 3.13, 4.02, 5.16, 6.79, 7.47, 7.47, 6.94, 6.0, 5.05, 3.84, 3.84, 3.84]}, {"header": {"dx": 0.06612293990616946, "dy": 0.0552356325346848, "nx": 98, "ny": 59, "la1": 35.046912555036876, "la2": 31.78801023549047, "lo1": -121.43107172385933, "lo2": -114.95102361305473, "refTime": "2026041806", "parameterCategory": 1, "parameterNumber": 3}, "data": [-10.23, -10.01, -10.01, -9.66, -9.37, -9.02, -8.15, -7.51, -6.87, -5.65, -4.37, -3.16, -1.58, -0.63, 0.0, 0.0, -0.0, -0.6, -0.95, -0.89, 0.0, 0.0, 0.54, 0.65, 0.65, 0.61, 0.79, 1.49, 2.53, 3.72, 4.74, 4.74, 4.74, 4.43, 3.72, 3.22, 2.29, 1.41, 0.7, 0.59, 0.0, 0.0, 0.0, -1.99, -3.4, -4.6, -5.28, -5.38, -4.71, -4.03, -2.4, 0.0, 2.5, 3.83, 4.22, 3.84, 4.46, 4.01, 3.9, 3.0, 2.35, 1.45, 0.82, 1.24, 2.6, 3.32, 3.45, 3.07, 2.73, 2.88, 2.47, 2.29, 3.22, 2.79, 2.15, 1.34, 1.34, 1.2, 0.6, 0.63, 0.45, 0.45, 0.63, -0.0, -0.54, -1.61, -2.5, -2.91, -3.53, -4.02, -4.73, -5.16, -5.64, -5.16, -4.73, -4.3, -4.0, -3.6, -10.01, -10.01, -9.66, -9.94, -9.37, -9.02, -8.38, -7.51, -6.87, -5.65, -4.94, -2.86, -1.24, -0.57, -1.2, 0.0, 0.0, -0.63, -0.95, -1.2, -1.34, -0.63, 0.0, 0.0, 0.0, 0.0, 0.0, 0.65, 1.4, 2.86, 3.49, 3.84, 3.49, 2.84, 2.51, 1.8, 1.23, 0.72, 0.0, 0.0, 0.0, 0.0, -1.98, -4.46, -6.14, -6.79, -6.79, -6.24, -4.56, -2.98, 0.0, 2.21, 3.16, 3.49, 3.49, 3.84, 4.11, 3.9, 3.79, 3.2, 2.4, 1.49, 1.7, 2.86, 3.32, 3.83, 3.84, 3.07, 2.4, 2.29, 2.2, 2.29, 2.2, 2.98, 2.5, 1.34, 0.45, 1.2, 0.6, 0.63, 0.45, 0.45, 0.63, -0.0, -0.54, -1.61, -2.5, -2.91, -3.53, -4.02, -4.73, -5.16, -5.64, -5.16, -4.73, -4.3, -4.0, -3.6, -9.94, -9.94, -9.94, -9.37, -9.02, -8.73, -8.38, -8.08, -7.44, -6.23, -5.01, -4.37, -1.88, -1.49, -0.71, 0.0, 0.0, -0.89, -1.7, -1.7, -1.7, -1.79, -1.6, -0.71, 0.0, 0.0, 0.76, 0.65, 1.24, 1.58, 1.86, 1.9, 1.58, 1.26, 0.54, 0.76, 0.0, 0.0, 0.0, -0.72, -1.98, -3.6, -5.38, -6.42, -6.42, -6.42, -5.49, -3.9, -2.3, 0.0, 1.4, 2.79, 3.16, 2.84, 3.45, 3.83, 3.79, 4.01, 3.0, 2.26, 1.58, 1.45, 3.07, 4.8, 4.93, 4.84, 4.46, 3.72, 3.11, 3.11, 3.2, 3.0, 2.29, 2.2, 2.15, 1.2, 0.0, 0.63, 0.6, 0.63, 0.0, 0.0, 0.0, -0.0, -0.0, -0.65, -1.0, -2.15, -3.13, -3.97, -5.34, -5.86, -6.07, -5.77, -5.32, -4.43, -4.3, -3.6, -9.94, -9.94, -9.37, -9.02, -9.3, -8.73, -8.38, -8.08, -7.44, -6.79, -5.93, -5.29, -3.22, -1.9, -1.24, -0.71, -0.6, -0.8, -1.7, -2.23, -1.86, -1.6, -1.79, -1.34, -0.6, 0.0, 0.54, 0.65, 0.71, 0.6, 0.0, 0.0, -0.89, -1.34, -0.95, -0.65, -0.87, -1.05, -2.26, -3.27, -4.6, -5.64, -5.13, -4.83, -3.79, -3.0, -2.11, -0.66, 0.0, 1.49, 2.0, 2.3, 2.41, 3.22, 3.83, 4.46, 3.79, 2.88, 3.0, 1.49, 1.55, 2.4, 4.84, 5.34, 6.0, 5.69, 5.09, 4.74, 4.71, 4.67, 4.71, 3.6, 2.4, 2.04, 1.84, 1.26, 0.0, -0.63, 0.0, 0.0, -0.45, -0.45, 0.0, -0.0, -0.0, -0.0, -0.0, -1.2, -3.09, -4.52, -5.6, -5.34, -5.16, -4.87, -4.47, -4.02, -3.97, -3.6, -9.94, -9.59, -9.37, -9.3, -8.94, -8.73, -8.65, -8.08, -7.8, -7.15, -6.23, -5.49, -3.22, -1.9, -1.9, -1.9, -1.58, -1.6, -2.24, -2.5, -2.21, -1.24, -0.8, -0.0, -0.0, 0.0, 0.0, 0.0, 0.0, 0.0, -0.63, -1.34, -2.68, -4.41, -4.92, -5.4, -4.98, -5.37, -6.24, -6.95, -5.94, -3.9, -1.66, -0.79, -0.81, -0.76, 0.0, 0.0, 1.47, 2.11, 2.0, 2.07, 2.86, 3.83, 4.46, 4.11, 2.88, 2.29, 2.26, 1.58, 1.52, 3.83, 5.64, 6.28, 6.4, 6.08, 5.09, 4.43, 4.74, 4.56, 4.37, 3.88, 3.27, 2.9, 1.8, 1.61, 0.0, 0.0, 0.0, 0.0, -0.45, -1.34, -0.89, -0.0, -0.57, -1.24, -1.79, -2.4, -4.0, -5.43, -4.46, -4.0, -3.82, -3.13, -2.91, -3.13, -3.32, -3.07, -9.59, -9.37, -9.3, -9.3, -8.73, -8.65, -8.65, -8.08, -8.0, -7.09, -6.44, -5.86, -3.22, -2.23, -1.9, -2.23, -2.4, -2.23, -2.68, -3.32, -4.4, -3.45, -2.21, -0.8, -0.95, -1.79, -2.24, -2.12, -2.23, -1.58, -0.63, -0.45, -1.79, -4.92, -7.57, -7.92, -7.21, -7.06, -7.02, -6.08, -4.09, -2.21, -1.6, -0.76, -1.52, -0.78, 0.0, 0.76, 1.6, 1.55, 1.33, 2.84, 3.84, 3.84, 3.84, 3.22, 2.29, 1.6, 1.55, 1.49, 3.07, 4.66, 5.64, 5.86, 5.6, 5.43, 4.65, 3.9, 3.07, 2.88, 2.4, 2.31, 2.9, 2.82, 1.41, 1.61, 1.24, 0.8, 0.57, 0.0, -0.45, -1.79, -2.24, -1.7, -1.86, -3.07, -4.02, -4.52, -5.6, -4.93, -4.0, -4.0, -2.17, -1.0, -1.61, -2.68, -2.91, -2.79, -9.86, -9.3, -9.3, -8.94, -8.73, -8.65, -8.29, -8.08, -8.0, -7.44, -6.79, -6.41, -3.22, -1.9, -3.48, -2.23, -2.8, -3.2, -3.32, -4.02, -3.82, -5.34, -5.34, -4.66, -3.51, -4.02, -5.36, -5.81, -4.92, -2.68, -0.95, -0.0, -0.45, -1.86, -5.44, -7.01, -7.89, -6.99, -5.06, -3.16, -2.54, -3.04, -4.29, -4.47, -3.0, 0.0, 1.41, 2.29, 2.2, 1.1, 2.4, 2.84, 3.79, 3.79, 2.53, 1.55, 0.81, 0.0, 0.0, 1.41, 2.8, 4.02, 3.51, 3.74, 3.83, 4.11, 3.9, 2.29, 0.66, 0.7, 0.0, 0.0, 0.0, 0.0, 0.0, 0.0, 1.2, 1.58, 1.26, 0.0, -0.6, -2.68, -3.58, -3.53, -3.53, -4.47, -5.77, -6.55, -5.86, -4.93, -5.94, -4.47, -1.88, -0.59, -1.9, -2.68, -3.07, -3.14, -9.86, -9.3, -9.3, -8.73, -8.65, -8.65, -8.29, -8.55, -8.37, -8.27, -7.61, -6.95, -4.22, -2.5, -3.79, -1.9, -2.5, -3.45, -3.83, -2.86, -1.9, -1.86, -3.13, -4.47, -6.66, -6.71, -7.15, -7.52, -5.94, -3.58, -1.74, -1.58, -1.79, -2.6, -5.69, -6.54, -7.01, -6.28, -4.89, -3.93, -2.12, -1.79, -2.54, -2.23, -0.6, 0.95, 1.49, 2.2, 2.35, 2.26, 1.84, 3.07, 3.72, 3.22, 2.4, 1.41, 0.66, 0.0, 0.0, 1.24, 2.12, 2.24, 2.68, 3.2, 2.53, 1.6, 1.6, 0.72, 0.0, -0.73, -0.72, -0.78, -1.45, -2.2, -1.27, -0.54, 0.6, 1.2, 0.6, -0.54, -1.13, -3.39, -4.02, -4.47, -4.92, -5.78, -6.11, -6.11, -6.11, -6.55, -5.36, -2.84, -1.35, -1.84, -2.6, -3.07, -3.6, -3.14, -9.86, -9.3, -8.94, -8.73, -8.65, -8.65, -8.29, -8.55, -8.55, -8.43, -8.15, -8.0, -6.79, -6.28, -4.8, -3.74, -3.83, -3.83, -2.86, -1.9, -0.85, 0.0, -0.79, -2.5, -3.97, -4.47, -4.02, -4.15, -5.59, -4.89, -5.4, -6.61, -7.6, -8.24, -6.94, -5.34, -5.94, -6.88, -6.36, -3.04, -1.2, -0.0, -0.0, -0.0, -0.0, 0.89, 0.63, 0.85, 2.2, 3.11, 4.87, 4.43, 4.01, 3.11, 2.88, 2.4, 1.41, 0.7, 0.57, 1.26, 2.12, 2.68, 3.04, 2.6, 1.4, 0.0, 0.0, 0.0, -1.55, -2.4, -2.2, -2.04, -3.0, -2.88, -1.84, -1.26, -0.45, -0.45, -0.95, -0.54, -0.61, -2.23, -3.39, -4.02, -4.47, -5.32, -5.2, -4.43, -4.47, -3.53, -2.84, -1.88, -2.4, -3.16, -3.53, -3.39, -3.72, -3.72, -9.3, -9.3, -8.94, -8.73, -8.65, -8.65, -8.65, -8.29, -8.55, -8.55, -8.82, -8.96, -8.28, -9.39, -8.33, -7.89, -8.14, -8.33, -7.52, -6.61, -5.26, -4.4, -3.48, -3.79, -4.15, -3.95, -3.13, -3.04, -6.32, -7.4, -8.05, -8.94, -8.05, -7.6, -8.05, -6.17, -5.37, -3.45, -2.68, -2.12, -0.57, -0.0, 0.6, -0.0, -0.0, -0.0, -0.0, 0.0, 1.26, 3.48, 4.74, 5.06, 4.65, 3.64, 2.88, 2.29, 2.29, 1.55, 0.65, 1.58, 3.74, 5.16, 6.36, 3.58, 1.6, 0.0, 0.0, -0.69, -1.41, -2.41, -2.79, -3.38, -3.38, -2.51, -1.61, -0.57, -1.34, -2.17, -2.24, -1.86, -1.0, -0.61, -1.33, -2.21, -2.68, -2.91, -2.91, -2.4, -1.34, -0.0, -0.57, -2.44, -4.11, -4.46, -4.43, -4.3, -4.4, -4.09, -9.3, -9.3, -8.94, -8.73, -9.01, -8.65, -8.65, -8.65, -8.93, -9.1, -9.1, -9.1, -8.72, -8.68, -8.14, -8.63, -9.97, -11.04, -11.12, -11.57, -11.06, -10.6, -9.54, -7.89, -7.81, -5.26, -3.95, -3.58, -4.98, -6.79, -6.26, -3.58, -1.79, -1.7, -3.97, -6.71, -4.98, -1.6, -1.26, -1.58, -0.6, -0.0, 0.45, 0.0, -0.0, -0.0, -0.0, 0.89, 1.34, 2.54, 3.83, 3.79, 3.22, 2.11, 1.47, 0.76, 0.72, 0.0, 0.0, 1.9, 5.86, 6.79, 6.0, 4.46, 3.83, 2.5, 1.16, 0.0, -0.61, -2.21, -2.86, -3.14, -2.21, -1.9, -0.57, 0.0, -0.57, -2.24, -3.13, -3.13, -2.63, -1.61, -0.61, -0.66, -0.59, -0.59, 0.0, 0.0, 0.54, 1.2, -0.57, -2.84, -4.46, -5.05, -4.88, -5.32, -4.93, -4.27, -9.3, -9.3, -9.3, -8.94, -8.73, -9.01, -8.65, -8.65, -9.1, -9.1, -9.1, -9.1, -9.1, -8.18, -6.79, -6.95, -7.31, -9.11, -10.94, -11.49, -10.6, -9.57, -9.11, -8.73, -5.94, -5.26, -5.26, -4.34, -2.68, -1.6, -1.79, 0.0, 1.26, 0.99, -0.6, -2.4, -1.86, -0.0, -0.0, -0.6, 0.0, 0.89, 0.89, 1.79, 0.0, -0.0, 0.6, 1.34, 1.79, 1.6, 1.26, 1.0, 0.76, 0.0, 0.0, -0.7, -0.76, -1.47, -1.16, 2.23, 6.51, 7.21, 6.4, 5.75, 5.81, 3.53, 2.15, 0.0, -0.65, -1.9, -1.49, -0.54, 0.0, 0.0, 0.0, 0.0, 0.0, -1.24, -2.68, -3.13, -3.58, -2.63, -1.9, 0.0, 0.0, 0.0, 0.0, 0.0, 0.0, 0.0, -0.65, -2.24, -3.35, -4.09, -5.32, -5.81, -5.64, -4.93, -9.5, -9.3, -9.3, -9.3, -8.94, -8.94, -9.21, -9.21, -8.84, -9.1, -9.1, -9.1, -9.1, -8.55, -7.44, -5.69, -5.01, -6.03, -7.81, -8.96, -8.48, -7.58, -7.09, -4.0, -2.44, -1.61, -1.6, -1.6, -0.53, 0.57, 0.0, 0.89, 1.26, 1.24, 1.24, 0.71, -0.0, -0.0, -0.0, -0.0, 0.0, 0.45, 0.89, 0.0, 0.0, -0.0, -0.0, 0.0, 0.0, 0.0, -0.6, -1.26, -1.24, -1.4, -1.74, -3.16, -1.8, -2.0, -1.2, 2.24, 5.36, 6.51, 6.51, 7.15, 6.66, 3.13, 1.26, 0.0, -1.2, -0.65, 0.53, 1.4, 1.4, 1.2, 0.65, 0.0, 0.0, -0.65, -1.24, -2.17, -3.07, -3.53, -3.53, -3.32, 0.0, 0.0, 0.0, -0.63, -0.57, -0.57, -0.66, -1.16, -1.86, -3.07, -4.43, -5.36, -5.32, -4.88, -9.86, -9.5, -9.3, -9.3, -9.3, -9.3, -8.94, -9.21, -9.21, -9.1, -9.1, -9.1, -9.1, -8.93, -8.08, -6.87, -5.37, -4.45, -5.59, -6.51, -6.7, -5.86, -4.94, -3.48, -1.58, -1.08, -0.54, 0.0, 0.0, 0.0, 0.0, 0.45, 1.2, 0.57, 0.8, 0.8, 0.6, 0.63, -0.0, -0.0, 0.0, 0.0, 0.0, 0.0, -1.79, -1.79, -0.63, 0.0, -0.89, -1.6, -2.12, -2.54, -2.12, -0.95, -0.95, -1.86, -2.54, -2.6, -1.9, 1.79, 3.95, 4.92, 6.26, 6.61, 4.66, 2.17, 0.0, -1.2, -2.53, 0.0, 1.4, 1.61, 0.61, 0.0, 0.0, -0.65, -0.65, -0.65, -0.65, -0.71, -1.7, -2.68, -3.53, -3.97, -2.68, -1.84, -1.41, -1.23, -0.57, -0.57, -0.63, -0.57, -1.33, -1.9, -3.07, -4.02, -4.47, -4.92, -9.86, -9.86, -9.86, -9.86, -9.5, -9.3, -9.3, -9.21, -9.21, -9.1, -9.1, -9.1, -9.1, -8.93, -8.29, -7.51, -6.32, -5.69, -5.08, -5.08, -5.38, -4.75, -3.85, -2.8, -2.16, -1.65, -1.1, -0.55, 0.0, 0.0, 0.0, 0.0, 1.58, 1.2, 1.9, 2.8, 2.68, 0.89, 0.0, 0.0, 0.0, 0.0, 0.0, 0.0, 0.0, 0.0, 1.34, 1.79, 0.0, -0.89, -2.12, -2.54, -0.89, 0.89, 0.45, 0.0, -1.6, -3.04, -1.26, 1.79, 2.12, 1.6, 2.12, 1.6, 1.6, 0.95, -0.0, -1.2, -0.45, 0.0, 0.99, 0.61, -0.73, -1.49, -1.61, -1.2, -1.49, -1.24, -0.71, 0.0, 0.0, 0.0, -0.53, -1.2, -3.32, -4.3, -3.49, -1.8, -1.13, -0.59, -0.63, -1.35, -1.41, -1.33, -1.2, -3.58, -4.92, -4.92, -9.86, -9.86, -9.86, -9.86, -9.86, -9.86, -9.3, -9.58, -9.21, -8.84, -9.1, -9.1, -9.1, -8.93, -8.29, -8.08, -7.17, -6.32, -5.41, -5.1, -5.1, -4.46, -4.05, -2.92, -2.26, -1.61, -1.16, -0.54, 0.0, 0.0, 0.0, 0.0, 0.45, 1.58, 2.8, 2.12, 1.79, 1.79, 1.79, 0.0, 0.0, 0.0, 0.0, 0.0, 0.0, 1.79, 3.13, 3.13, 2.24, 0.0, 0.0, 0.0, 0.95, 1.6, 1.2, 0.63, -0.8, -0.8, 0.0, 1.6, 1.34, 2.68, 2.24, 0.0, 0.0, 0.0, -0.45, -0.8, -0.0, -0.0, 0.0, -0.7, -1.47, -2.79, -3.14, -2.5, -1.86, -0.57, 0.0, 0.71, 1.2, 1.16, 1.33, 0.59, 0.0, -1.2, -4.3, -4.0, -2.53, -1.84, -2.0, -1.94, -1.84, -1.16, -1.24, -2.24, -4.02, -4.02, -9.86, -9.86, -9.86, -9.86, -9.86, -9.86, -9.5, -9.58, -9.21, -9.21, -9.1, -9.1, -8.84, -8.93, -8.29, -8.08, -7.51, -6.92, -5.71, -5.1, -4.83, -4.71, -3.81, -2.89, -1.69, -1.14, -1.12, -1.12, -0.56, -0.54, 0.0, 0.0, 0.0, 1.79, 1.79, 2.24, 1.79, 1.2, 0.0, 0.0, 0.0, 0.0, 0.0, 0.0, 0.0, 2.68, 3.58, 3.13, 2.68, 2.8, 2.8, 2.8, 3.2, 2.84, 2.53, 1.13, 0.0, 1.27, 3.35, 3.82, 3.2, 2.8, 1.4, 0.0, 0.0, 0.0, 0.0, -0.45, -1.26, -1.79, -2.12, -1.24, -0.71, -1.86, -3.53, -3.53, -2.17, 0.0, 1.2, 1.2, 1.26, 1.0, 0.61, 0.59, 0.59, 0.0, -2.5, -3.82, -3.74, -3.16, -3.38, -2.0, -2.23, -2.23, -2.15, -2.4, -3.58, -3.58, -10.41, -10.41, -10.23, -10.23, -9.86, -9.86, -9.5, -9.76, -9.21, -9.21, -8.84, -8.84, -8.84, -8.55, -8.37, -7.73, -7.81, -7.23, -6.32, -5.1, -4.46, -4.05, -4.05, -2.92, -1.07, -1.12, -1.65, -1.11, -1.11, -1.12, -1.14, -0.56, 0.0, 1.2, 2.63, 1.79, 0.89, 0.0, 0.0, 0.0, 0.0, 0.0, 0.0, 0.0, 1.26, 3.13, 3.13, 3.13, 2.8, 3.2, 3.2, 3.82, 3.35, 3.35, 3.35, 2.84, 2.48, 3.48, 4.09, 3.72, 2.84, 1.13, 0.0, 0.0, 0.0, 0.8, 0.0, -1.58, -3.13, -3.13, -2.24, -0.45, 0.0, 0.0, -2.24, -3.39, -2.5, -0.6, -0.0, 0.0, 0.0, -0.57, -0.65, -0.59, 0.0, 0.0, -0.61, -3.04, -4.41, -4.4, -3.79, -2.48, -2.23, -3.16, -2.51, -2.5, -3.04, -3.04, -10.41, -10.41, -10.41, -10.41, -10.23, -9.86, -9.5, -9.76, -9.21, -9.21, -8.84, -9.1, -8.93, -8.55, -8.55, -7.68, -7.73, -7.51, -6.32, -4.71, -4.03, -4.69, -4.46, -3.11, -2.47, -3.17, -2.89, -2.31, -2.4, -2.21, -1.69, -1.63, -0.55, 1.16, 2.68, 2.6, 1.2, 0.0, 0.0, 0.0, 0.0, 0.0, 0.0, 0.0, 2.4, 3.2, 3.2, 2.8, 2.8, 3.2, 3.39, 3.82, 4.24, 4.34, 4.77, 4.8, 3.48, 3.48, 3.48, 2.48, 1.27, 0.0, 0.0, 0.0, 0.6, 1.79, 0.89, -0.8, -3.16, -2.21, 0.0, 0.0, 0.71, 0.0, -0.61, -2.24, -3.07, -3.14, -2.5, -2.17, -2.91, -3.07, -2.79, -2.53, -2.23, -2.07, -1.8, -1.8, -4.24, -5.2, -4.52, -3.48, -2.73, -3.15, -3.16, -3.14, -3.07, -3.07, -10.41, -10.41, -10.41, -10.41, -10.41, -9.86, -9.76, -9.76, -9.21, -9.21, -8.84, -8.93, -8.93, -8.55, -8.55, -8.0, -7.8, -7.44, -6.44, -5.37, -4.71, -5.72, -5.72, -5.69, -5.69, -5.3, -4.56, -4.71, -4.45, -3.37, -2.92, -2.32, -0.57, 1.61, 3.07, 2.91, 1.7, 1.26, 0.57, 0.0, 0.0, 0.0, 0.0, 1.2, 2.21, 2.53, 2.53, 3.2, 3.2, 3.2, 3.39, 4.24, 4.77, 4.77, 2.6, 2.8, 4.65, 1.9, 0.57, 0.0, 0.0, 0.0, -1.4, 0.0, 1.34, 1.7, 1.2, 0.0, 0.0, 0.81, 2.2, 2.35, 1.5, 0.74, -1.52, -3.64, -3.32, -4.24, -4.24, -3.58, -3.97, -3.6, -3.14, -2.53, -2.53, -2.51, -1.6, 0.0, -1.84, -2.68, -4.43, -5.05, -5.09, -4.46, -4.66, -4.09, -4.0, -4.0, -10.41, -10.41, -10.41, -10.41, -10.04, -9.86, -9.76, -9.76, -9.21, -9.21, -8.84, -8.93, -8.55, -8.55, -8.93, -8.37, -8.0, -7.64, -7.35, -7.69, -7.35, -6.95, -6.95, -6.64, -6.64, -6.32, -5.1, -5.1, -5.1, -4.08, -3.45, -2.4, 0.0, 1.61, 3.2, 3.39, 2.6, 1.86, 1.24, 1.24, 0.54, 0.65, 0.65, 1.16, 2.21, 2.84, 2.53, 2.8, 2.8, 3.2, 4.02, 4.47, 4.92, 4.92, 4.77, 2.4, 3.83, 3.14, 2.23, 0.0, -1.2, -1.9, 0.0, 1.58, 1.6, 1.6, 1.6, 1.34, 3.2, 4.84, 5.37, 4.71, 2.34, 0.0, -2.99, -6.79, -4.93, -4.24, -6.0, -4.87, -4.02, -3.32, -2.21, -1.16, -0.61, -0.51, 0.0, 1.16, 0.66, 0.0, -2.84, -5.44, -6.07, -5.31, -5.72, -5.72, -5.2, -5.2, -10.41, -10.41, -10.41, -10.41, -10.04, -10.13, -9.76, -9.76, -9.21, -9.21, -8.84, -8.93, -8.55, -8.55, -8.55, -8.29, -8.0, -8.0, -8.29, -8.65, -7.85, -6.92, -6.92, -6.64, -6.35, -5.72, -4.71, -4.08, -3.84, -3.45, -2.82, -1.76, 0.0, 2.23, 3.35, 3.39, 3.07, 2.6, 1.86, 1.24, 1.24, 1.0, 1.2, 1.61, 2.21, 2.79, 2.53, 2.8, 2.8, 3.58, 4.02, 4.47, 4.47, 4.47, 4.47, 4.77, 4.24, 5.34, 4.8, 0.0, -0.89, -0.63, -0.0, 1.6, 1.58, 2.0, 2.54, 1.7, 2.24, 2.12, 2.6, 3.22, 2.07, 0.61, -6.07, -9.05, -7.92, -3.82, -3.82, -5.6, -4.73, -3.58, -2.17, -1.24, -0.53, 0.0, 0.0, 0.0, -1.27, 0.0, -2.04, -4.75, -5.31, -5.2, -5.2, -4.77, -4.52, -4.52, -10.41, -10.41, -10.41, -10.41, -10.04, -10.13, -9.76, -9.76, -9.21, -9.21, -8.84, -8.93, -8.55, -8.55, -8.55, -8.29, -8.08, -8.08, -7.81, -7.86, -6.95, -6.32, -6.28, -6.32, -6.34, -5.72, -4.69, -4.05, -3.42, -3.0, -2.36, -1.08, 0.0, 1.6, 2.79, 2.91, 2.91, 2.6, 1.86, 1.86, 1.24, 1.24, 1.58, 1.9, 2.5, 2.68, 2.8, 2.4, 3.13, 3.58, 4.02, 4.02, 4.02, 4.47, 4.47, 4.47, 3.13, 4.41, 3.6, 1.79, -0.0, -0.0, 0.8, 2.0, 2.23, 3.04, 2.54, 1.79, 1.34, 0.0, -0.45, -0.0, 1.86, 0.0, -4.02, -7.92, -8.93, -5.72, -2.91, -3.6, -6.25, -4.52, -3.53, -3.13, -2.8, -1.88, -1.61, -2.51, -3.48, -5.06, -3.47, -4.29, -4.12, -3.6, -3.09, -4.43, -4.6, -4.6, -10.41, -10.41, -10.41, -10.41, -10.04, -10.13, -9.76, -9.76, -9.21, -9.21, -8.84, -8.93, -8.55, -8.55, -8.55, -8.29, -8.29, -8.08, -7.81, -7.27, -6.67, -6.01, -5.71, -5.71, -5.72, -5.72, -5.34, -4.45, -3.6, -2.96, -2.16, -1.19, 0.0, 1.13, 1.61, 2.5, 2.4, 2.6, 2.17, 1.86, 1.86, 1.58, 1.58, 2.15, 2.4, 2.4, 2.8, 2.8, 2.97, 3.58, 4.02, 3.58, 4.02, 4.02, 4.02, 4.02, 2.24, 2.24, 2.68, 1.79, -0.0, -0.0, 0.6, 2.12, 2.8, 3.74, 3.13, 4.47, 1.34, 0.0, -2.12, -0.0, 1.26, 1.2, -0.0, -5.36, -7.74, -7.4, -4.65, -2.68, -4.66, -6.52, -5.51, -4.92, -4.47, -4.43, -4.52, -5.6, -6.25, -5.09, -4.36, -2.48, -2.15, -0.99, -1.2, -3.39, -4.52, -4.52, -10.41, -10.41, -10.41, -10.41, -10.04, -10.13, -9.76, -9.76, -9.21, -9.21, -8.84, -8.93, -8.55, -8.55, -8.55, -8.55, -8.29, -8.08, -7.55, -7.55, -6.97, -6.35, -5.72, -5.72, -5.72, -5.72, -5.45, -5.09, -4.46, -3.42, -2.32, -1.16, 0.0, 0.59, 1.16, 1.9, 2.0, 2.17, 2.17, 1.86, 1.86, 1.86, 1.58, 2.23, 2.4, 2.0, 1.86, 1.86, 2.4, 2.6, 2.63, 3.58, 3.58, 3.58, 3.58, 3.58, 3.13, 1.6, 0.89, 0.89, 0.0, 0.0, 0.0, 2.12, 3.2, 3.47, 3.13, 3.13, 2.24, -1.26, -2.23, -2.12, 0.0, -0.0, -0.0, -0.45, -2.12, -3.51, -5.75, -2.5, -3.58, -6.13, -7.14, -7.12, -7.15, -6.71, -7.01, -6.79, -4.93, -3.6, -2.5, -1.6, -0.59, 0.0, 0.0, -1.61, -3.35, -3.35, -10.41, -10.41, -10.41, -10.41, -10.04, -10.13, -9.76, -9.76, -9.21, -9.21, -8.84, -8.93, -8.55, -8.55, -8.37, -8.37, -8.08, -8.08, -7.55, -7.55, -6.97, -6.97, -6.35, -5.72, -5.72, -5.72, -5.72, -5.36, -4.71, -4.08, -2.8, -1.16, 0.0, 0.0, 0.0, 0.54, 1.86, 2.0, 2.0, 1.86, 1.86, 1.86, 1.86, 1.86, 1.86, 2.12, 1.86, 1.86, 1.86, 2.17, 2.24, 2.24, 3.13, 3.58, 3.58, 3.58, 3.13, 2.8, 1.58, 0.0, 0.0, 0.0, 0.57, 1.79, 2.24, 2.6, 2.6, 2.24, 0.0, -1.2, -2.53, -2.84, -1.9, -1.24, 0.0, 0.0, 0.0, -2.91, -4.24, -4.0, -3.45, -4.47, -6.85, -6.9, -6.11, -5.36, -5.77, -4.3, -3.53, -3.13, -3.13, -1.16, -0.57, -0.63, -0.63, -1.27, -1.8, -1.8, -10.41, -10.41, -10.41, -10.41, -10.04, -10.13, -9.76, -9.76, -9.21, -9.21, -8.84, -8.93, -8.55, -8.55, -8.37, -8.37, -8.08, -8.08, -7.81, -7.55, -7.27, -6.97, -6.97, -6.35, -5.72, -5.72, -5.72, -5.1, -5.1, -4.08, -2.8, -2.18, -1.73, -1.23, -0.59, 0.0, 1.24, 1.86, 1.86, 1.26, 1.26, 1.26, 1.7, 2.12, 1.7, 1.7, 1.6, 1.6, 1.6, 1.79, 1.79, 2.24, 2.68, 3.13, 1.79, 1.79, 3.13, 3.2, 0.6, -0.0, 0.0, 0.0, 0.87, 1.49, 3.82, 1.79, 1.79, 0.45, -0.45, -1.79, -3.2, -3.84, -3.79, -2.15, 0.0, 0.57, 0.0, -2.4, -4.66, -5.34, -4.46, -4.24, -4.44, -6.13, -6.13, -5.78, -5.36, -3.58, -2.17, -2.91, -3.98, -3.98, -1.8, -1.94, -1.94, -1.76, -1.76, -1.76, -10.41, -10.41, -10.41, -10.41, -10.04, -10.13, -9.76, -9.76, -10.02, -9.21, -9.1, -8.93, -8.55, -8.55, -8.37, -8.0, -8.37, -8.08, -8.08, -7.55, -7.27, -6.97, -6.97, -6.97, -6.35, -6.01, -5.72, -5.1, -4.75, -4.12, -2.82, -2.2, -1.57, -1.76, -1.13, 0.0, 0.71, 1.58, 1.26, 1.26, 1.26, 1.6, 1.6, 1.6, 1.6, 1.2, 0.95, 1.2, 0.89, 0.89, 1.34, 1.79, 2.68, 3.13, 3.07, 1.79, 3.13, 1.9, 0.6, -0.0, 0.0, 0.0, 0.65, 1.4, 1.58, 3.2, 0.89, 0.0, -0.89, -1.79, -2.12, -2.41, -3.79, -3.22, -1.7, -0.89, -0.89, -1.79, -2.91, -4.93, -4.09, -4.55, -3.54, -4.52, -7.06, -7.92, -6.58, -3.07, -2.8, -3.53, -4.43, -4.92, -3.72, -3.15, -3.12, -2.44, -2.44, -2.44, -10.41, -10.41, -10.41, -10.41, -10.3, -10.3, -9.76, -9.76, -10.02, -9.63, -9.1, -8.93, -8.55, -8.55, -8.37, -8.0, -8.0, -8.08, -8.08, -7.55, -7.55, -7.27, -6.97, -6.97, -6.35, -6.34, -5.72, -5.1, -4.47, -3.84, -2.84, -2.44, -1.76, -1.8, -1.16, 0.0, 0.57, 0.8, 0.6, 0.6, 0.95, 1.2, 1.2, 0.89, 0.63, 0.95, 0.95, 0.0, 0.0, 0.0, 0.89, 1.79, 2.68, 2.68, 2.68, 2.68, 2.68, 1.58, -0.0, -0.0, 0.0, 0.0, 0.0, 0.71, 0.99, 1.2, 1.2, 0.0, -0.89, -1.34, -1.7, -2.41, -2.47, -4.01, -4.24, -2.6, -1.88, -2.17, -2.4, -3.49, -3.14, -3.79, -2.53, -3.09, -4.43, -6.36, -6.9, -5.09, -4.73, -4.87, -5.32, -5.36, -4.88, -4.0, -3.48, -3.15, -3.12, -3.12, -10.41, -10.41, -10.41, -10.41, -10.3, -10.3, -9.76, -9.76, -10.02, -9.63, -9.63, -9.1, -8.93, -8.55, -8.55, -8.0, -8.0, -8.08, -8.08, -7.55, -7.55, -7.27, -7.55, -6.95, -6.95, -6.34, -5.72, -5.1, -4.47, -3.84, -2.84, -2.44, -1.8, -1.84, -1.2, 0.0, 0.0, 0.0, 0.0, 0.0, 0.63, 0.63, 0.63, 0.63, 0.0, 0.0, 0.0, 0.0, 0.0, 0.0, 1.34, 2.24, 2.68, 2.68, 2.24, 2.24, 1.79, 1.34, -0.0, -0.0, 0.0, 0.0, 0.0, 0.0, 0.0, 0.45, 0.89, 0.0, 0.0, -1.34, -2.68, -3.49, -2.2, -3.15, -5.13, -3.79, -2.68, -2.5, -3.13, -3.07, -3.48, -4.74, -3.49, -2.21, -2.68, -4.0, -5.86, -7.73, -8.24, -8.02, -7.57, -6.22, -5.81, -4.52, -4.27, -3.78, -3.79, -3.79, -10.41, -10.41, -10.41, -10.41, -10.3, -10.3, -10.13, -10.02, -10.02, -10.02, -9.63, -9.48, -8.93, -8.55, -8.55, -8.37, -8.37, -8.08, -8.08, -7.81, -7.55, -7.55, -7.23, -6.95, -6.64, -6.64, -6.32, -5.38, -4.47, -3.84, -3.49, -2.86, -2.23, -1.61, -1.24, 0.0, 0.0, 0.0, 0.0, 0.0, 0.0, 0.0, 0.0, 0.0, 0.0, 0.0, 0.0, 0.0, 0.0, 0.89, 1.79, 1.79, 1.79, 2.24, 1.79, 1.79, 1.79, 1.34, 0.89, 0.0, 0.0, 0.0, 0.0, 0.0, -0.89, -0.45, 0.0, -0.63, -1.34, -2.12, -3.32, -3.04, -2.53, -1.55, -2.25, -4.58, -3.91, -1.9, -2.24, -3.07, -4.66, -4.75, -4.37, -2.79, -2.24, -2.68, -4.17, -4.52, -4.73, -4.73, -4.3, -4.3, -4.88, -4.92, -5.02, -4.66, -4.37, -4.37, -10.68, -10.68, -10.41, -10.41, -10.3, -10.3, -10.3, -10.02, -10.02, -10.02, -9.63, -9.63, -9.48, -8.55, -8.55, -8.55, -8.37, -8.08, -8.08, -8.08, -7.81, -7.55, -7.23, -6.95, -6.92, -6.32, -6.28, -5.65, -4.01, -4.12, -3.83, -3.49, -2.58, -2.21, -1.24, 0.0, 0.0, 0.0, 0.0, 0.0, 0.0, 0.0, 0.0, 0.0, 0.0, 0.0, -0.89, 0.0, 0.0, 0.89, 1.79, 1.79, 1.79, 1.34, 1.34, 1.34, 1.34, 1.34, 1.2, 1.34, 0.0, 0.0, 0.0, -0.32, -0.89, -0.89, -0.89, -0.89, -2.24, -2.54, -1.49, -0.89, -2.24, -1.6, -1.54, -3.19, -4.6, -2.2, -0.57, -1.9, -2.53, -2.53, -2.84, -3.43, -2.91, -2.68, -2.63, -1.86, -0.6, -0.63, -0.45, -1.2, -3.09, -4.47, -5.2, -5.02, -4.66, -4.66, -10.68, -10.68, -10.41, -10.41, -10.3, -10.3, -10.3, -10.16, -10.02, -10.02, -10.02, -9.63, -9.48, -9.1, -8.55, -8.55, -8.37, -8.29, -8.08, -8.08, -8.08, -7.51, -7.51, -6.92, -6.59, -6.28, -5.69, -5.65, -5.01, -3.79, -3.79, -3.79, -3.16, -2.21, -1.24, -0.6, -0.6, -0.95, -0.63, 0.0, 0.0, 0.0, 0.0, 0.0, 0.0, 0.0, 0.0, 0.0, 0.0, 1.34, 1.34, 1.34, 1.34, 1.34, 1.34, 1.34, 1.34, 1.34, 1.34, 1.6, 1.34, 0.0, 0.0, 0.0, 0.0, -0.45, -0.45, 0.0, -1.26, -1.6, 0.0, 0.8, -1.34, -2.86, -3.09, -2.35, -2.4, -0.99, 0.0, 0.0, 0.0, -0.66, -1.41, -1.94, -3.47, -3.2, -2.79, -0.6, 1.34, 1.7, 1.49, 1.26, 0.0, -2.17, -3.53, -4.73, -4.52, -4.52, -10.68, -10.68, -10.68, -10.68, -10.68, -10.3, -10.3, -10.16, -10.02, -10.02, -10.02, -9.63, -9.63, -9.48, -8.93, -8.55, -8.55, -8.29, -8.29, -8.08, -8.08, -7.51, -7.51, -6.92, -6.87, -6.28, -5.98, -5.93, -5.35, -4.37, -4.07, -3.73, -3.43, -2.21, -1.24, -1.26, -0.95, -1.2, -0.63, -0.89, -0.89, -0.89, -0.89, -0.89, -0.45, -0.89, -0.89, 0.0, 0.0, 0.89, 1.34, 1.34, 1.34, 1.34, 1.34, 1.34, 1.34, 1.34, 1.79, 1.6, 1.79, 1.79, 1.58, 1.26, 0.0, 0.0, 0.0, 0.0, 0.0, 0.0, 0.63, 0.95, 0.0, -5.46, -5.21, -2.26, 0.0, 0.65, 2.0, 2.12, 0.69, 0.0, -1.32, -2.0, -3.51, -3.35, -2.96, 0.0, 1.49, 1.7, 1.26, 0.71, 0.54, 0.0, -1.2, -4.43, -4.73, -4.73, -10.68, -10.68, -10.68, -10.68, -10.68, -10.3, -10.3, -10.55, -10.16, -10.02, -10.02, -10.02, -9.63, -9.48, -9.48, -8.93, -8.93, -8.29, -8.29, -8.08, -8.08, -7.73, -7.44, -6.87, -6.87, -6.23, -5.65, -5.59, -5.29, -4.65, -4.07, -3.43, -3.09, -2.21, -1.9, -1.26, -1.6, -1.6, -1.2, -0.89, -0.89, -0.89, -0.89, -0.89, -0.89, -0.89, -0.89, 0.0, 0.0, 0.89, 1.34, 1.34, 1.34, 1.34, 1.34, 1.34, 1.34, 1.34, 1.79, 1.79, 1.79, 2.24, 2.24, 1.58, 1.58, 0.0, 0.0, -0.45, -0.45, -0.45, 0.0, 0.0, -1.27, -3.91, -4.71, -2.23, 1.58, 4.0, 4.5, 2.35, 0.0, -1.4, -2.12, -2.69, -3.37, -2.83, -1.63, 0.0, 1.2, 1.2, 0.57, 0.0, 0.0, 0.0, -0.59, -1.13, -3.82, -3.82, -10.68, -10.68, -10.68, -10.68, -10.68, -10.3, -10.3, -10.55, -10.16, -10.02, -10.02, -10.02, -9.63, -9.63, -9.48, -9.1, -8.93, -8.65, -8.29, -8.55, -8.37, -8.0, -7.44, -6.87, -6.79, -6.23, -5.93, -5.86, -4.94, -4.65, -4.37, -3.43, -3.14, -2.21, -1.9, -1.86, -2.12, -1.7, -1.6, -1.34, -1.34, -1.34, -1.34, -1.34, -1.34, -1.34, -1.34, -0.63, 0.63, 1.34, 0.89, 0.89, 1.34, 1.34, 1.34, 1.34, 1.34, 1.34, 1.34, 1.79, 2.24, 1.7, 1.79, 0.89, 0.0, 0.0, 0.0, 0.0, -0.45, -0.45, 0.0, 0.0, 0.0, 0.0, -0.75, -0.77, 0.73, 2.97, 2.21, 0.67, -1.4, -2.12, -2.72, -2.9, -2.66, -1.26, 0.0, 0.54, 0.6, 0.0, 0.0, 0.0, -0.54, -0.65, -0.7, -0.59, -2.23, -2.23, -10.68, -10.68, -10.68, -10.68, -10.68, -10.3, -10.3, -10.55, -10.55, -10.16, -10.02, -10.02, -10.02, -9.63, -9.63, -9.48, -8.93, -8.65, -8.55, -8.55, -8.37, -8.0, -7.72, -7.35, -6.79, -6.51, -5.59, -5.49, -5.21, -4.84, -4.55, -3.64, -3.14, -2.5, -2.15, -2.4, -2.17, -2.17, -1.7, -1.79, -1.34, -1.34, -1.34, -0.89, -1.79, -1.79, -1.79, -0.0, 0.95, 0.89, 0.89, 0.89, 1.34, 1.34, 1.34, 1.34, 1.34, 1.34, 1.79, 1.79, 2.24, 2.24, 1.79, 0.0, 0.0, 0.0, 0.0, 0.0, 0.0, 0.0, 0.0, 0.0, 0.63, 1.14, 0.77, 0.0, -1.45, -2.31, -2.28, -2.76, -2.66, -1.94, -1.8, -1.8, -0.66, 0.0, 0.66, 0.51, 0.0, 0.0, -0.6, -0.57, -1.2, -1.2, -1.6, -1.8, -2.0, -1.27, -10.68, -10.68, -10.68, -10.68, -10.68, -10.68, -10.3, -10.55, -10.55, -10.16, -10.02, -10.02, -10.02, -9.63, -9.63, -9.48, -9.48, -8.93, -8.55, -8.55, -8.0, -8.27, -7.9, -7.35, -7.07, -6.15, -5.86, -5.49, -5.21, -4.84, -4.55, -3.64, -3.14, -2.68, -2.91, -2.63, -2.63, -2.17, -2.24, -1.79, -1.79, -1.79, -1.79, -0.89, -2.24, -2.24, -1.79, -0.0, 0.95, 0.63, 0.89, 0.95, 1.2, 1.34, 1.34, 1.34, 1.34, 1.34, 1.79, 1.79, 2.24, 2.24, 2.24, 0.0, 0.0, 0.0, 0.0, 0.0, 0.0, 0.89, 0.45, 0.0, 0.0, 0.0, 0.76, 0.0, -1.35, -5.21, -5.62, -4.87, -2.72, -1.27, -1.13, -0.59, 0.0, 0.0, 0.63, 0.0, 0.0, 0.0, -1.26, -1.26, -1.61, -1.2, -1.6, -2.0, -2.73, -2.0, -10.68, -10.68, -10.68, -10.68, -10.68, -10.68, -10.3, -10.55, -10.55, -10.16, -10.16, -10.02, -10.02, -10.02, -9.63, -9.48, -9.48, -9.1, -8.55, -8.55, -8.27, -7.9, -7.9, -7.61, -7.07, -6.41, -6.03, -5.75, -5.21, -5.08, -4.55, -4.27, -3.35, -3.07, -2.91, -3.07, -3.07, -2.63, -2.24, -2.24, -2.24, -1.79, -1.79, -2.24, -1.34, -2.6, -1.34, 0.0, 0.63, 0.63, 0.63, 0.95, 1.2, 1.34, 1.34, 1.34, 1.34, 1.34, 1.79, 1.79, 2.24, 2.24, 2.24, 2.24, 0.0, 0.0, 0.0, 0.0, 0.89, 1.34, 1.34, 0.0, -1.79, -1.58, 0.0, 2.11, 0.0, -2.2, -4.71, -4.07, -2.04, 0.0, 0.0, 0.0, 0.7, 0.0, 0.0, 0.0, 0.0, 0.0, -0.53, -1.61, -2.21, -2.15, -2.3, -2.3, -2.66, -2.73, -10.68, -10.68, -10.68, -10.68, -10.68, -10.68, -10.3, -10.55, -10.55, -10.55, -10.16, -10.02, -10.02, -10.02, -10.02, -9.63, -9.48, -9.1, -8.55, -8.55, -8.27, -7.9, -7.76, -7.23, -7.48, -6.56, -6.28, -5.75, -5.6, -5.08, -4.55, -4.27, -3.6, -3.39, -3.39, -3.53, -3.53, -2.68, -2.68, -2.24, -2.24, -2.24, -2.24, -2.17, -2.68, -1.34, -0.89, 0.0, -0.0, 0.63, 0.95, 0.95, 0.95, 1.34, 1.34, 1.34, 1.34, 1.34, 1.79, 1.79, 2.24, 2.24, 2.68, 2.68, 2.68, 2.4, 0.63, 1.58, 1.34, 1.79, 1.34, 0.0, -2.24, -2.24, 0.0, 1.49, 1.2, 0.0, -1.33, -1.49, 0.0, 0.66, 1.36, 1.44, 0.69, 0.0, 0.0, 0.0, 0.0, 0.0, -0.66, -1.84, -2.51, -3.43, -3.22, -2.98, -3.22, -3.22, -10.68, -10.68, -10.68, -10.68, -10.68, -10.68, -10.3, -10.55, -10.55, -10.55, -10.16, -10.16, -10.02, -10.02, -10.02, -9.63, -9.48, -9.48, -9.1, -8.55, -8.27, -8.15, -7.76, -7.48, -7.08, -7.2, -6.28, -5.89, -6.0, -5.47, -4.69, -4.4, -4.11, -3.87, -3.98, -3.98, -3.58, -3.13, -2.68, -2.68, -2.68, -2.24, -2.24, -2.17, -2.12, -1.34, 0.0, 0.0, -0.0, -0.0, -0.0, 0.63, 0.63, 0.89, 0.95, 1.34, 1.34, 1.34, 1.79, 1.79, 2.24, 2.68, 2.24, 2.68, 2.68, 2.4, 2.4, 2.68, 1.79, 1.79, 0.89, 0.0, -2.24, -2.68, -1.79, 0.0, 0.57, 0.65, 0.61, 1.33, 2.11, 3.47, 3.37, 2.76, 1.39, 0.73, 0.0, 0.0, -0.67, -1.41, -1.3, -1.94, -2.79, -3.72, -4.01, -3.64, -3.64, -3.64, -10.68, -10.68, -10.68, -10.68, -10.68, -10.68, -10.68, -10.3, -10.55, -10.55, -10.55, -10.16, -10.02, -10.02, -10.02, -10.02, -9.63, -9.48, -9.1, -8.82, -8.27, -8.15, -8.0, -7.48, -7.31, -7.2, -6.8, -6.51, -6.1, -5.6, -5.31, -4.8, -4.6, -4.77, -4.44, -4.44, -4.02, -3.13, -3.13, -2.68, -2.68, -2.68, -2.68, -2.24, -1.79, -0.89, 0.0, 0.0, -0.0, -0.0, -0.0, -0.0, 0.0, 0.89, 1.2, 1.2, 1.34, 1.79, 1.79, 2.24, 2.24, 2.68, 2.68, 3.13, 2.68, 2.68, 2.68, 3.13, 1.79, 1.34, 0.89, 0.0, -1.79, -2.68, -2.6, -1.2, 0.0, 0.66, 2.26, 5.13, 7.08, 7.67, 6.07, 4.08, 2.15, 0.67, 0.0, -0.61, -1.47, -2.2, -2.04, -2.88, -3.43, -4.43, -4.01, -3.64, -3.64, -3.64, -10.3, -10.3, -10.68, -10.68, -10.68, -10.68, -10.68, -10.3, -10.55, -10.55, -10.55, -10.16, -10.02, -10.02, -10.02, -10.02, -9.63, -9.48, -9.1, -8.43, -8.15, -7.76, -8.0, -7.48, -7.31, -7.2, -7.01, -6.51, -6.1, -5.6, -5.4, -5.51, -5.09, -5.24, -4.89, -4.88, -4.02, -3.58, -3.13, -3.13, -3.13, -2.68, -2.68, -2.24, -1.34, -0.89, -0.89, -0.0, -0.0, -0.0, -0.0, -0.0, 0.0, 0.89, 1.2, 1.6, 1.79, 1.79, 1.79, 2.24, 2.24, 2.68, 2.68, 2.68, 3.13, 2.68, 2.68, 1.34, 1.34, 1.34, 0.89, 0.0, -1.2, -2.12, -1.26, 0.0, 0.0, 0.0, 2.18, 5.52, 9.4, 9.23, 7.16, 4.39, 2.7, 1.4, 0.73, 0.0, -1.41, -2.2, -3.4, -3.16, -3.79, -4.46, -3.79, -4.43, -4.43, -4.43, -10.3, -10.3, -10.3, -10.68, -10.68, -10.68, -10.68, -10.3, -10.55, -10.55, -10.55, -10.16, -10.16, -10.02, -10.02, -10.02, -9.63, -9.48, -9.1, -8.82, -8.15, -8.0, -7.6, -7.71, -7.31, -7.31, -7.01, -6.6, -6.51, -6.3, -5.81, -5.57, -5.57, -5.7, -5.26, -4.89, -4.47, -3.58, -3.58, -3.58, -3.58, -3.13, -2.68, -2.24, -1.79, -1.34, -1.34, -0.95, -0.95, -0.95, -0.0, -0.0, 0.0, 0.89, 1.2, 1.6, 1.6, 1.79, 1.79, 2.24, 2.68, 2.68, 2.68, 3.13, 2.68, 2.68, 2.68, 1.34, 1.34, 1.34, 0.89, 0.0, 0.0, -0.6, 0.0, 1.0, 0.0, 0.0, 1.52, 4.83, 7.9, 8.05, 6.09, 4.17, 3.39, 2.01, 0.0, -0.71, -2.12, -3.2, -3.76, -2.86, -2.86, -3.83, -4.46, -5.09, -5.09, -5.09, -10.3, -10.3, -10.3, -10.68, -10.68, -10.68, -10.68, -10.3, -10.55, -10.55, -10.55, -10.16, -10.16, -10.02, -10.02, -10.02, -9.63, -9.48, -9.1, -8.82, -8.15, -8.0, -7.6, -7.71, -7.31, -7.51, -7.01, -6.6, -6.6, -6.3, -6.3, -6.04, -5.99, -5.7, -5.7, -5.33, -4.47, -4.02, -4.02, -4.02, -3.58, -3.13, -3.13, -2.68, -2.24, -1.7, -1.2, -1.2, -0.95, -0.95, -0.0, -0.0, 0.0, 0.89, 1.6, 1.7, 1.6, 1.79, 1.79, 2.24, 2.6, 2.68, 2.63, 3.07, 3.07, 3.13, 2.68, 2.68, 2.68, 0.89, 0.89, 0.45, 0.0, 0.0, 0.0, 0.0, 0.0, 0.88, 2.3, 3.48, 5.06, 5.41, 6.2, 6.27, 4.15, 1.36, 0.0, -1.36, -1.52, -1.9, -1.9, -2.4, -3.07, -3.32, -4.4, -5.09, -5.09, -5.09, -10.3, -10.3, -10.3, -10.68, -10.68, -10.68, -10.68, -10.3, -10.55, -10.55, -10.55, -10.16, -10.16, -10.02, -10.02, -10.02, -9.63, -9.48, -9.35, -8.82, -8.68, -8.0, -7.6, -7.71, -7.31, -7.51, -7.09, -7.01, -6.6, -6.79, -6.3, -6.47, -6.04, -6.04, -5.7, -5.34, -4.92, -4.47, -4.47, -4.47, -4.02, -3.58, -3.13, -2.68, -2.24, -1.7, -1.7, -1.2, -0.95, -0.95, -0.0, -0.0, 0.0, 0.63, 1.6, 1.6, 1.6, 1.7, 1.79, 2.17, 2.6, 2.68, 3.07, 3.07, 3.07, 3.58, 3.58, 3.13, 2.68, 0.89, 0.89, 0.45, 0.0, 0.0, 0.0, 0.0, 0.0, 0.99, 2.53, 2.86, 3.16, 4.56, 6.71, 6.87, 4.28, 0.71, -0.64, -1.35, -0.59, -1.2, -1.86, -2.17, -3.07, -3.53, -3.82, -3.45, -3.45, -3.45, -10.3, -10.3, -10.3, -10.68, -10.68, -10.68, -10.68, -10.3, -10.55, -10.55, -10.55, -10.55, -10.16, -10.02, -10.02, -10.02, -9.63, -9.48, -9.35, -8.82, -8.68, -8.0, -7.81, -7.71, -7.31, -7.51, -7.09, -7.01, -6.6, -6.79, -6.79, -6.47, -6.47, -6.04, -6.16, -5.78, -4.89, -4.92, -4.92, -4.47, -4.47, -4.02, -3.58, -3.13, -2.68, -2.12, -1.7, -1.6, -1.2, -0.95, -0.63, -0.0, -0.0, -0.0, 1.26, 1.26, 1.6, 1.6, 1.7, 2.12, 2.6, 2.63, 3.07, 3.07, 3.32, 1.6, 1.6, 1.79, 1.79, 1.79, 1.34, 0.0, 0.0, 0.0, 0.0, 0.0, 0.0, 1.26, 1.58, 2.23, 2.23, 3.84, 4.84, 3.16, 1.76, 0.0, -1.13, -1.16, -0.61, -0.59, -1.16, -2.5, -2.91, -3.07, -2.68, -1.79, -1.79, -1.79, -10.3, -10.3, -10.3, -10.68, -10.68, -10.68, -10.3, -10.3, -10.55, -10.55, -10.55, -10.55, -10.16, -10.02, -10.02, -10.02, -9.63, -9.48, -9.35, -8.96, -8.68, -8.0, -8.22, -7.81, -7.71, -7.51, -7.51, -7.09, -7.01, -6.79, -6.79, -6.47, -6.47, -6.47, -6.16, -5.78, -5.34, -5.33, -5.33, -4.92, -4.47, -4.02, -3.58, -3.13, -2.68, -2.24, -1.7, -1.6, -1.2, -0.95, -0.63, -0.0, -0.0, 0.95, 0.8, 1.26, 1.26, 1.26, 1.6, 1.7, 2.12, 2.6, 3.07, 3.07, 2.91, 1.58, 1.26, 2.12, 2.68, 2.68, 1.79, 0.89, 0.0, -0.89, -0.45, 0.0, 0.0, 0.0, 0.63, 2.0, 1.7, 2.6, 2.6, 1.24, 0.0, -0.63, -0.61, -1.24, -1.58, -1.33, -1.23, -2.07, -2.4, -1.34, -0.63, -0.45, -0.45, -0.45, -10.3, -10.55, -10.55, -10.3, -10.68, -10.68, -10.3, -10.55, -10.55, -10.55, -10.55, -10.55, -10.16, -10.02, -10.02, -10.02, -9.63, -9.48, -9.35, -8.96, -8.68, -8.28, -8.22, -7.81, -7.71, -7.51, -7.51, -7.09, -7.09, -7.21, -6.79, -6.94, -6.51, -6.47, -6.16, -5.79, -5.78, -5.78, -5.34, -5.33, -4.92, -4.47, -4.02, -3.13, -2.68, -2.24, -1.7, -1.6, -1.2, -0.95, -0.63, -0.0, -0.0, 0.63, 0.95, 1.26, 1.24, 0.99, 1.26, 1.6, 1.7, 2.17, 2.6, 3.07, 2.91, 2.5, 1.26, 1.58, 2.12, 2.24, 2.24, 1.2, 0.89, 0.45, -0.0, 0.0, 0.0, 0.0, 0.0, 0.45, 1.34, 1.79, 1.34, 0.0, -0.63, -0.7, -0.59, -0.99, -2.17, -2.8, -2.51, -1.8, -1.2, -0.0, -0.63, -0.89, -0.89, -0.89, -10.55, -10.55, -10.55, -10.55, -10.55, -10.55, -10.55, -10.55, -10.55, -10.55, -10.55, -10.55, -10.16, -10.02, -10.02, -10.02, -9.63, -9.63, -9.35, -8.96, -8.68, -8.28, -8.22, -7.81, -7.81, -7.51, -7.51, -7.51, -7.09, -7.26, -6.79, -6.94, -6.94, -6.51, -6.6, -6.23, -5.79, -5.78, -5.78, -5.34, -4.89, -4.47, -4.02, -3.58, -3.13, -2.24, -2.12, -1.7, -1.2, -0.63, -0.0, -0.0, -0.0, 0.89, 0.89, 1.6, 1.24, 1.24, 1.24, 1.26, 1.6, 1.7, 2.12, 2.6, 2.4, 2.15, 1.24, 0.71, 1.26, 1.6, 1.6, 0.8, 0.45, 0.89, 0.45, 0.0, 0.0, -0.89, 0.0, -0.0, 0.45, 0.89, 0.89, 0.0, -0.69, -0.69, -0.59, -0.57, -1.34, -2.6, -2.53, -1.88, 0.0, -0.6, -1.7, -2.24, -2.24, -2.24, -10.55, -10.55, -10.55, -10.55, -10.55, -10.55, -10.55, -10.55, -10.55, -10.55, -10.55, -10.55, -10.16, -10.02, -10.02, -10.02, -9.63, -9.88, -9.35, -8.96, -8.68, -8.68, -8.22, -8.22, -7.81, -8.0, -7.51, -7.51, -7.51, -7.26, -7.21, -6.79, -6.94, -6.51, -6.61, -6.23, -6.23, -6.23, -5.79, -5.78, -5.33, -4.92, -4.47, -4.02, -3.13, -2.68, -2.24, -1.7, -1.2, -0.89, 0.0, 0.0, 0.0, 0.89, 0.89, 1.34, 1.6, 1.24, 1.49, 1.24, 1.6, 1.7, 1.7, 2.12, 1.86, 1.9, 1.2, 0.53, -0.0, 0.6, 0.63, 0.0, 0.0, 0.63, 0.89, 0.45, 0.0, -0.63, -0.63, -0.0, -0.0, 0.63, 0.63, 0.0, 0.0, 0.0, 0.0, -0.54, -1.27, -2.17, -2.4, -1.58, -0.45, -1.26, -2.17, -2.24, -2.24, -2.24, -10.55, -10.55, -10.55, -10.55, -10.55, -10.55, -10.55, -10.55, -10.55, -10.55, -10.55, -10.55, -10.16, -10.16, -10.02, -10.02, -9.63, -9.88, -9.35, -9.2, -9.2, -8.68, -8.51, -8.22, -7.81, -8.0, -8.0, -7.51, -7.51, -7.09, -7.26, -7.21, -6.79, -6.94, -6.61, -6.68, -6.68, -6.23, -6.16, -5.78, -5.78, -5.33, -4.47, -4.02, -3.58, -2.68, -2.24, -1.79, -1.34, -0.89, 0.0, 0.0, 0.89, 0.89, 1.34, 1.34, 1.79, 1.86, 1.9, 1.24, 1.26, 1.6, 1.6, 1.7, 1.86, 1.86, 1.58, 0.54, -0.0, -0.0, -0.0, 0.0, 0.0, 0.0, 0.45, 0.0, 0.0, -0.6, -0.8, -0.0, -0.0, 0.57, 1.24, 1.34, 1.24, 0.61, 0.0, 0.0, -1.79, -2.68, -2.91, -2.4, -1.34, -1.7, -2.17, -1.2, -1.2, -1.2, -10.55, -10.55, -10.55, -10.55, -10.55, -10.55, -10.55, -10.55, -10.55, -10.55, -10.55, -10.55, -10.16, -10.16, -10.02, -10.02, -9.63, -9.88, -9.35, -9.2, -9.2, -8.68, -8.51, -8.22, -8.22, -7.81, -8.0, -8.0, -7.51, -7.51, -7.26, -7.26, -7.21, -6.94, -7.06, -6.61, -6.61, -6.61, -6.16, -6.16, -5.7, -5.33, -4.89, -4.47, -3.58, -3.13, -2.24, -1.79, -1.34, -0.89, 0.0, 0.0, 0.89, 0.89, 1.34, 1.34, 1.79, 1.79, 1.86, 1.24, 1.26, 1.2, 1.34, 1.6, 1.49, 1.49, 1.6, 0.95, 0.71, -0.0, -0.0, -0.0, 0.0, 0.0, 0.45, 0.0, 0.0, -0.63, -0.6, -0.0, -0.0, 1.16, 1.33, 1.58, 0.89, 0.0, 0.0, 0.0, -0.89, -3.13, -3.97, -3.13, -1.79, -2.24, -1.7, -0.0, -0.0, -0.0, -10.55, -10.55, -10.55, -10.55, -10.55, -10.55, -10.55, -10.55, -10.55, -10.55, -10.55, -10.55, -10.16, -10.16, -10.02, -10.02, -9.63, -9.88, -9.35, -8.96, -9.2, -8.8, -8.91, -8.3, -8.22, -7.81, -7.81, -8.0, -7.51, -7.51, -7.09, -7.09, -7.01, -7.21, -6.94, -7.06, -6.61, -6.61, -6.6, -6.16, -6.14, -5.7, -5.24, -4.44, -3.98, -3.13, -2.24, -1.79, -1.34, -0.89, 0.0, 0.0, 0.89, 0.89, 1.34, 1.34, 1.79, 1.79, 1.7, 1.26, 1.26, 1.2, 1.2, 1.6, 1.7, 1.7, 1.6, 1.2, 0.8, -0.0, -0.0, -0.0, -0.0, -0.0, 0.45, 0.45, 0.0, -0.45, -0.45, -0.0, -0.0, 0.65, 0.59, 0.54, 0.45, 0.0, 0.0, 0.45, 0.0, -2.68, -3.58, -3.58, -3.13, -2.68, -0.89, 1.34, 1.34, 1.34, -10.55, -10.55, -10.55, -10.55, -10.55, -10.55, -10.55, -10.55, -10.55, -10.55, -10.55, -10.55, -10.16, -10.16, -10.02, -10.02, -9.63, -9.88, -9.35, -9.35, -9.2, -8.8, -8.91, -8.3, -8.22, -8.22, -7.81, -7.81, -7.71, -7.51, -7.51, -7.09, -7.01, -7.01, -6.79, -6.94, -6.94, -6.51, -6.47, -6.47, -6.04, -5.57, -5.24, -4.77, -3.98, -3.53, -2.6, -1.7, -1.2, -0.95, -0.63, 0.0, 0.0, 0.89, 0.89, 1.34, 1.2, 1.34, 1.34, 1.6, 1.26, 1.2, 1.2, 1.6, 1.6, 1.7, 1.6, 1.34, 0.95, -0.0, -0.0, -0.0, -0.0, -0.0, -0.0, 0.0, 0.0, 0.0, -0.45, 0.0, 0.0, -0.0, -0.0, -0.0, -0.0, -0.63, -0.6, 0.0, 0.0, -1.7, -3.07, -3.97, -4.02, -2.68, 0.0, 2.17, 2.17, 2.17, -10.55, -10.55, -10.55, -10.55, -10.55, -10.55, -10.55, -10.55, -10.55, -10.55, -10.55, -10.55, -10.16, -10.16, -10.02, -10.02, -9.63, -9.88, -9.35, -9.35, -9.2, -8.8, -8.91, -8.51, -8.22, -8.22, -7.81, -7.81, -7.71, -7.31, -7.31, -7.09, -7.01, -7.01, -6.6, -6.94, -6.94, -6.51, -6.47, -6.47, -6.04, -5.99, -5.51, -5.09, -4.34, -3.39, -2.91, -1.86, -1.26, -1.2, -0.95, 0.0, 0.0, 0.89, 0.89, 0.89, 0.95, 1.2, 1.34, 1.2, 1.6, 1.2, 1.2, 1.6, 1.6, 1.6, 1.6, 1.34, 0.89, 0.89, -0.0, -0.0, -0.6, -0.0, -0.32, 0.0, 0.0, 0.0, 0.0, 0.0, 0.0, -0.0, -0.0, -0.0, -0.4, -0.63, -1.26, -0.57, -0.63, -1.34, -2.63, -3.09, -3.13, -1.26, 1.9, 2.5, 2.5, 2.5, -10.55, -10.55, -10.55, -10.55, -10.55, -10.55, -10.55, -10.55, -10.55, -10.55, -10.55, -10.55, -10.16, -10.02, -10.02, -9.63, -9.63, -9.88, -9.35, -9.35, -9.2, -9.2, -8.68, -8.51, -8.0, -8.22, -7.81, -7.81, -7.71, -7.31, -7.31, -7.2, -6.8, -6.8, -6.4, -6.6, -6.79, -6.79, -6.3, -6.3, -5.88, -5.81, -5.31, -4.9, -4.4, -3.7, -3.07, -2.15, -1.58, -1.24, -0.8, 0.0, 0.0, 0.0, 0.0, 0.0, 0.63, 0.95, 0.63, 1.34, 1.2, 1.2, 1.2, 1.79, 1.7, 1.6, 1.2, 1.34, 0.89, 0.89, 0.0, -0.0, -0.63, 0.0, -0.89, 0.0, 0.0, 0.0, 0.0, 0.0, 0.0, -0.0, -0.0, -0.0, -0.63, -0.8, -0.99, -0.54, 0.0, -0.54, -1.26, -1.49, -0.54, 1.16, 2.79, 3.48, 3.48, 3.48, -10.55, -10.55, -10.55, -10.55, -10.55, -10.55, -10.55, -10.55, -10.55, -10.55, -10.55, -10.55, -10.16, -10.02, -10.02, -9.63, -9.63, -9.88, -9.35, -9.35, -9.2, -9.2, -8.68, -8.51, -8.0, -8.0, -7.6, -7.48, -7.48, -7.48, -7.31, -7.2, -6.8, -6.8, -6.28, -6.28, -6.51, -6.51, -6.51, -6.1, -6.0, -5.6, -5.47, -5.08, -4.55, -4.0, -3.14, -2.53, -1.88, -1.2, -0.57, 0.0, 0.0, 0.0, 0.0, 0.0, 0.0, 0.0, 0.63, 0.89, 1.34, 1.34, 1.34, 1.79, 1.79, 1.79, 1.34, 1.34, 0.89, 0.89, 0.0, 0.0, 0.0, 0.0, 0.0, 0.0, 0.0, 0.0, 0.0, 0.0, 0.0, -1.34, -0.89, -0.63, -0.89, -0.63, -0.57, 0.0, 0.0, 0.66, 0.66, 0.59, 1.27, 2.11, 3.12, 3.79, 3.79, 3.79, -10.55, -10.55, -10.55, -10.55, -10.55, -10.55, -10.55, -10.55, -10.55, -10.55, -10.55, -10.55, -10.16, -10.02, -10.02, -9.63, -9.63, -9.88, -9.35, -9.35, -9.2, -9.2, -8.68, -8.51, -8.0, -8.0, -7.6, -7.48, -7.48, -7.48, -7.31, -7.2, -6.8, -6.8, -6.28, -6.28, -6.51, -6.51, -6.51, -6.1, -6.0, -5.6, -5.47, -5.08, -4.55, -4.0, -3.14, -2.53, -1.88, -1.2, -0.57, 0.0, 0.0, 0.0, 0.0, 0.0, 0.0, 0.0, 0.63, 0.89, 1.34, 1.34, 1.34, 1.79, 1.79, 1.79, 1.34, 1.34, 0.89, 0.89, 0.0, 0.0, 0.0, 0.0, 0.0, 0.0, 0.0, 0.0, 0.0, 0.0, 0.0, -0.89, -1.2, -1.2, -0.8, -0.54, 0.0, 0.0, 1.47, 2.26, 2.99, 2.99, 3.09, 3.0, 2.88, 3.07, 3.07, 3.07]}]